GEFSMA_prec_meanprecacc_114.txt.gz
Total_Precipitation_Accumulation
0.02 0.01 0.01 0.01 0.01 0.01 0.02 0.03 0.05 0.08 0.09 0.09 0.11 0.11 0.12 0.11 0.09 0.10 0.09 0.10 0.10 0.09 0.10 0.17 0.34 0.66 0.97 1.05 1.13 1.05 0.94 0.88 0.76 0.62 0.60 0.72 0.81 0.79 0.73 0.79 0.73 0.57 0.50
0.02 0.02 0.01 0.01 0.01 0.01 0.01 0.01 0.01 0.02 0.03 0.03 0.04 0.05 0.07 0.08 0.08 0.11 0.12 0.14 0.13 0.11 0.10 0.11 0.19 0.38 0.72 0.98 1.15 1.33 1.19 1.06 1.00 0.83 0.65 0.63 0.73 0.78 0.78 0.78 0.82 0.73 0.59
0.02 0.02 0.02 0.02 0.01 0.01 0.01 0.00 0.01 0.01 0.01 0.01 0.01 0.01 0.02 0.03 0.05 0.07 0.09 0.13 0.17 0.15 0.13 0.12 0.13 0.21 0.40 0.68 0.97 1.29 1.49 1.27 1.19 1.14 0.92 0.68 0.65 0.72 0.78 0.83 0.85 0.90 0.77
0.02 0.02 0.02 0.02 0.02 0.01 0.01 0.01 0.01 0.01 0.01 0.01 0.01 0.01 0.00 0.00 0.01 0.03 0.05 0.08 0.14 0.17 0.15 0.15 0.14 0.15 0.24 0.41 0.67 1.02 1.60 1.60 1.43 1.38 1.35 1.05 0.78 0.73 0.74 0.81 0.87 0.92 0.98
0.02 0.02 0.03 0.03 0.02 0.02 0.01 0.01 0.01 0.01 0.01 0.01 0.01 0.01 0.00 0.00 0.00 0.00 0.01 0.03 0.06 0.13 0.17 0.17 0.18 0.17 0.17 0.23 0.42 0.74 1.37 1.74 1.75 1.72 1.69 1.54 1.16 0.89 0.80 0.80 0.88 0.94 1.02
0.01 0.02 0.03 0.02 0.02 0.02 0.01 0.01 0.01 0.01 0.01 0.01 0.01 0.01 0.00 0.00 0.00 0.00 0.00 0.01 0.02 0.04 0.11 0.15 0.18 0.18 0.16 0.16 0.22 0.39 0.80 1.28 1.59 1.77 1.83 1.91 1.74 1.27 0.97 0.87 0.87 0.98 1.04
0.01 0.01 0.02 0.02 0.02 0.02 0.02 0.02 0.02 0.02 0.02 0.02 0.03 0.02 0.01 0.00 0.00 0.00 0.00 0.00 0.01 0.01 0.04 0.08 0.15 0.20 0.19 0.17 0.16 0.19 0.36 0.73 1.13 1.42 1.61 1.80 2.05 1.86 1.38 1.08 0.97 1.00 1.11
0.01 0.01 0.02 0.02 0.02 0.02 0.02 0.02 0.02 0.03 0.03 0.02 0.06 0.10 0.05 0.01 0.00 0.00 0.00 0.00 0.00 0.01 0.02 0.04 0.08 0.15 0.20 0.20 0.14 0.13 0.17 0.37 0.75 1.16 1.43 1.61 1.89 2.17 1.96 1.47 1.19 1.14 1.20
0.01 0.01 0.01 0.01 0.01 0.01 0.01 0.01 0.02 0.03 0.04 0.02 0.04 0.19 0.29 0.16 0.05 0.01 0.00 0.01 0.01 0.01 0.01 0.02 0.05 0.08 0.14 0.21 0.19 0.13 0.11 0.18 0.40 0.78 1.25 1.57 1.79 2.09 2.26 2.01 1.58 1.33 1.32
0.00 0.01 0.01 0.01 0.01 0.01 0.01 0.01 0.02 0.03 0.07 0.08 0.05 0.08 0.19 0.25 0.29 0.14 0.02 0.02 0.03 0.03 0.02 0.02 0.03 0.05 0.08 0.15 0.21 0.21 0.16 0.15 0.24 0.50 0.91 1.47 1.86 2.11 2.44 2.40 2.08 1.68 1.49
0.01 0.01 0.01 0.01 0.01 0.01 0.01 0.02 0.02 0.04 0.07 0.12 0.13 0.11 0.10 0.10 0.15 0.25 0.12 0.03 0.04 0.04 0.04 0.03 0.03 0.04 0.05 0.10 0.15 0.20 0.24 0.25 0.33 0.45 0.69 1.15 1.86 2.20 2.61 2.82 2.50 2.01 1.68
0.01 0.01 0.01 0.01 0.01 0.01 0.02 0.02 0.03 0.05 0.06 0.09 0.11 0.13 0.17 0.19 0.16 0.21 0.20 0.07 0.03 0.03 0.04 0.04 0.05 0.07 0.09 0.10 0.12 0.21 0.28 0.33 0.43 0.48 0.52 0.80 1.38 2.06 2.50 2.85 2.74 2.25 1.84
0.02 0.01 0.01 0.01 0.01 0.01 0.02 0.03 0.05 0.05 0.06 0.09 0.11 0.12 0.14 0.16 0.17 0.22 0.27 0.16 0.07 0.02 0.02 0.03 0.05 0.08 0.11 0.13 0.14 0.19 0.24 0.30 0.37 0.42 0.42 0.51 0.81 1.39 2.09 2.63 2.93 2.68 2.17
0.02 0.01 0.01 0.01 0.01 0.02 0.03 0.04 0.06 0.07 0.08 0.10 0.10 0.12 0.16 0.14 0.16 0.22 0.29 0.33 0.27 0.09 0.03 0.02 0.02 0.04 0.09 0.14 0.14 0.16 0.15 0.21 0.27 0.32 0.36 0.40 0.53 0.84 1.38 2.02 2.77 3.23 2.92
0.01 0.01 0.01 0.01 0.02 0.03 0.04 0.06 0.07 0.08 0.09 0.12 0.14 0.16 0.19 0.17 0.18 0.20 0.24 0.35 0.52 0.38 0.10 0.02 0.02 0.03 0.08 0.13 0.14 0.12 0.11 0.14 0.19 0.24 0.29 0.33 0.41 0.58 0.89 1.37 1.94 2.83 3.41
0.01 0.01 0.01 0.02 0.03 0.04 0.05 0.07 0.08 0.09 0.12 0.14 0.18 0.20 0.21 0.21 0.24 0.26 0.28 0.29 0.38 0.48 0.28 0.03 0.02 0.04 0.09 0.16 0.17 0.14 0.13 0.14 0.16 0.18 0.20 0.23 0.28 0.40 0.62 0.94 1.34 1.90 2.77
0.01 0.01 0.01 0.03 0.06 0.07 0.08 0.10 0.10 0.12 0.15 0.16 0.18 0.22 0.24 0.26 0.33 0.35 0.39 0.38 0.34 0.38 0.38 0.09 0.02 0.04 0.12 0.20 0.19 0.14 0.14 0.13 0.11 0.13 0.16 0.20 0.24 0.32 0.47 0.68 0.93 1.28 1.89
0.00 0.01 0.02 0.05 0.09 0.11 0.11 0.14 0.15 0.15 0.18 0.20 0.21 0.25 0.28 0.31 0.36 0.41 0.48 0.49 0.41 0.36 0.41 0.25 0.06 0.05 0.12 0.23 0.27 0.21 0.18 0.16 0.11 0.12 0.16 0.21 0.27 0.33 0.41 0.54 0.72 0.95 1.30
0.00 0.01 0.02 0.07 0.15 0.21 0.19 0.17 0.20 0.21 0.20 0.22 0.25 0.31 0.35 0.39 0.38 0.41 0.51 0.56 0.50 0.42 0.42 0.38 0.18 0.08 0.11 0.23 0.33 0.31 0.26 0.24 0.18 0.15 0.16 0.19 0.24 0.30 0.37 0.45 0.59 0.75 0.92
0.00 0.01 0.02 0.06 0.17 0.30 0.33 0.34 0.37 0.32 0.26 0.21 0.19 0.24 0.36 0.50 0.55 0.59 0.60 0.59 0.60 0.61 0.56 0.51 0.36 0.21 0.18 0.25 0.41 0.46 0.39 0.34 0.29 0.23 0.20 0.19 0.22 0.28 0.32 0.35 0.38 0.50 0.68
0.00 0.01 0.01 0.03 0.14 0.40 0.65 0.82 0.74 0.47 0.31 0.23 0.18 0.20 0.31 0.52 0.69 0.88 0.95 0.84 0.83 0.89 0.84 0.78 0.66 0.49 0.36 0.39 0.49 0.53 0.59 0.49 0.43 0.35 0.26 0.20 0.20 0.20 0.21 0.26 0.31 0.36 0.48
0.01 0.01 0.01 0.02 0.08 0.36 0.73 0.96 0.70 0.37 0.26 0.22 0.21 0.20 0.28 0.49 0.63 0.73 0.87 0.90 0.96 1.12 1.18 1.11 0.96 0.78 0.55 0.45 0.49 0.61 0.74 0.79 0.67 0.49 0.38 0.30 0.27 0.25 0.21 0.20 0.25 0.30 0.39
0.01 0.01 0.01 0.02 0.03 0.19 0.56 0.83 0.58 0.30 0.22 0.20 0.20 0.19 0.23 0.35 0.47 0.56 0.60 0.62 0.69 0.85 1.10 1.23 1.18 0.88 0.69 0.56 0.66 0.78 0.79 0.88 0.78 0.72 0.69 0.60 0.39 0.33 0.26 0.28 0.32 0.32 0.38
0.02 0.01 0.02 0.02 0.02 0.09 0.43 0.72 0.53 0.26 0.18 0.17 0.19 0.16 0.14 0.22 0.35 0.52 0.61 0.58 0.54 0.63 0.87 1.12 1.29 1.11 0.92 0.88 1.03 1.18 1.18 1.14 0.97 0.93 0.92 0.97 0.69 0.48 0.39 0.35 0.35 0.32 0.36
0.02 0.02 0.02 0.02 0.02 0.04 0.28 0.68 0.55 0.25 0.17 0.15 0.17 0.15 0.12 0.13 0.28 0.48 0.52 0.48 0.42 0.48 0.61 0.84 1.00 1.03 1.01 1.12 1.34 1.64 1.71 1.60 1.34 1.11 1.03 1.03 1.00 0.86 0.76 0.61 0.51 0.43 0.38
0.02 0.02 0.02 0.02 0.02 0.02 0.15 0.56 0.63 0.28 0.17 0.13 0.14 0.14 0.16 0.21 0.31 0.40 0.41 0.44 0.53 0.48 0.45 0.49 0.53 0.55 0.61 0.73 1.05 1.47 1.70 1.69 1.46 1.38 1.24 1.10 1.16 1.19 1.34 1.09 0.79 0.56 0.44

GEFSMA_prec_meanprecacc_120.txt.gz
Total_Precipitation_Accumulation
0.02 0.01 0.01 0.01 0.01 0.01 0.02 0.03 0.05 0.08 0.09 0.09 0.11 0.11 0.12 0.11 0.09 0.10 0.09 0.10 0.10 0.09 0.10 0.18 0.34 0.67 0.98 1.06 1.14 1.06 0.95 0.89 0.77 0.63 0.61 0.73 0.82 0.79 0.74 0.79 0.74 0.58 0.52
0.02 0.02 0.01 0.01 0.01 0.01 0.01 0.01 0.01 0.02 0.03 0.03 0.04 0.05 0.07 0.08 0.08 0.11 0.12 0.14 0.13 0.11 0.10 0.12 0.20 0.39 0.72 0.98 1.15 1.34 1.19 1.06 1.00 0.83 0.65 0.63 0.73 0.78 0.79 0.78 0.83 0.74 0.59
0.02 0.02 0.02 0.02 0.01 0.01 0.01 0.00 0.01 0.01 0.01 0.01 0.01 0.01 0.02 0.03 0.05 0.07 0.10 0.13 0.17 0.15 0.13 0.12 0.13 0.21 0.40 0.69 0.97 1.30 1.49 1.27 1.19 1.14 0.92 0.68 0.66 0.72 0.78 0.83 0.86 0.90 0.78
0.02 0.02 0.02 0.02 0.02 0.01 0.01 0.01 0.01 0.01 0.01 0.01 0.01 0.01 0.00 0.00 0.01 0.03 0.05 0.08 0.14 0.17 0.15 0.15 0.14 0.15 0.24 0.41 0.67 1.02 1.60 1.60 1.43 1.38 1.35 1.05 0.78 0.73 0.74 0.81 0.88 0.93 0.99
0.02 0.02 0.03 0.03 0.02 0.02 0.01 0.01 0.01 0.01 0.01 0.01 0.01 0.01 0.00 0.00 0.00 0.00 0.01 0.03 0.06 0.13 0.17 0.17 0.18 0.17 0.17 0.23 0.42 0.74 1.37 1.74 1.75 1.72 1.69 1.54 1.17 0.89 0.80 0.80 0.89 0.95 1.03
0.01 0.02 0.03 0.02 0.02 0.02 0.01 0.01 0.01 0.01 0.01 0.01 0.01 0.01 0.00 0.00 0.00 0.00 0.00 0.01 0.02 0.04 0.11 0.15 0.18 0.18 0.16 0.16 0.22 0.39 0.80 1.29 1.59 1.77 1.83 1.91 1.74 1.28 0.98 0.88 0.88 0.99 1.05
0.01 0.02 0.02 0.02 0.02 0.02 0.02 0.02 0.02 0.02 0.02 0.02 0.03 0.02 0.01 0.00 0.00 0.00 0.00 0.00 0.01 0.01 0.04 0.08 0.15 0.20 0.19 0.17 0.16 0.19 0.36 0.73 1.13 1.43 1.61 1.80 2.05 1.86 1.38 1.08 0.98 1.01 1.12
0.01 0.01 0.02 0.02 0.02 0.03 0.03 0.02 0.02 0.03 0.03 0.02 0.06 0.10 0.05 0.01 0.00 0.00 0.00 0.00 0.00 0.01 0.02 0.04 0.08 0.15 0.20 0.20 0.14 0.13 0.17 0.37 0.75 1.16 1.43 1.61 1.90 2.18 1.96 1.47 1.20 1.15 1.21
0.01 0.01 0.01 0.01 0.01 0.02 0.02 0.01 0.02 0.03 0.05 0.02 0.04 0.19 0.29 0.16 0.05 0.01 0.00 0.01 0.01 0.01 0.01 0.02 0.05 0.08 0.14 0.21 0.19 0.13 0.11 0.18 0.40 0.78 1.26 1.57 1.79 2.10 2.27 2.02 1.59 1.34 1.33
0.01 0.01 0.01 0.01 0.01 0.01 0.01 0.02 0.02 0.03 0.07 0.08 0.05 0.08 0.19 0.25 0.29 0.14 0.02 0.02 0.03 0.03 0.02 0.02 0.03 0.05 0.08 0.15 0.21 0.21 0.16 0.15 0.24 0.50 0.91 1.47 1.86 2.11 2.45 2.41 2.09 1.68 1.50
0.01 0.01 0.01 0.01 0.01 0.01 0.02 0.02 0.02 0.04 0.07 0.12 0.13 0.11 0.10 0.10 0.16 0.25 0.12 0.03 0.04 0.04 0.04 0.03 0.03 0.04 0.05 0.10 0.15 0.20 0.24 0.25 0.33 0.45 0.69 1.15 1.86 2.21 2.61 2.83 2.51 2.02 1.68
0.02 0.01 0.01 0.01 0.01 0.01 0.02 0.02 0.03 0.05 0.06 0.09 0.12 0.14 0.17 0.20 0.16 0.21 0.20 0.07 0.03 0.03 0.04 0.04 0.05 0.07 0.09 0.10 0.12 0.21 0.28 0.33 0.43 0.48 0.52 0.80 1.38 2.06 2.50 2.85 2.74 2.25 1.84
0.02 0.02 0.01 0.01 0.01 0.02 0.02 0.04 0.05 0.06 0.07 0.09 0.11 0.12 0.14 0.16 0.17 0.22 0.27 0.16 0.07 0.02 0.02 0.03 0.05 0.08 0.11 0.13 0.14 0.19 0.24 0.30 0.37 0.42 0.42 0.51 0.81 1.39 2.09 2.63 2.94 2.69 2.18
0.02 0.01 0.01 0.02 0.02 0.03 0.04 0.06 0.07 0.08 0.09 0.10 0.10 0.13 0.16 0.14 0.16 0.22 0.29 0.33 0.27 0.09 0.03 0.02 0.02 0.04 0.09 0.14 0.14 0.16 0.15 0.21 0.27 0.32 0.36 0.40 0.53 0.84 1.38 2.03 2.78 3.24 2.93
0.01 0.01 0.01 0.02 0.03 0.04 0.06 0.08 0.09 0.09 0.11 0.13 0.14 0.16 0.19 0.17 0.18 0.20 0.24 0.35 0.52 0.39 0.10 0.02 0.02 0.03 0.08 0.13 0.14 0.12 0.11 0.14 0.19 0.24 0.29 0.33 0.41 0.58 0.90 1.37 1.94 2.84 3.42
0.01 0.01 0.02 0.03 0.05 0.06 0.08 0.10 0.11 0.10 0.13 0.15 0.19 0.21 0.21 0.21 0.24 0.26 0.28 0.29 0.38 0.48 0.29 0.03 0.02 0.04 0.09 0.16 0.17 0.14 0.13 0.14 0.16 0.18 0.20 0.23 0.28 0.40 0.62 0.94 1.34 1.90 2.78
0.01 0.01 0.02 0.04 0.08 0.09 0.09 0.11 0.12 0.13 0.16 0.17 0.19 0.23 0.24 0.26 0.34 0.36 0.39 0.38 0.34 0.38 0.38 0.09 0.02 0.04 0.12 0.20 0.20 0.14 0.14 0.13 0.11 0.13 0.16 0.20 0.24 0.32 0.48 0.69 0.94 1.29 1.90
0.01 0.01 0.02 0.06 0.10 0.12 0.12 0.15 0.16 0.16 0.19 0.20 0.22 0.25 0.28 0.31 0.36 0.41 0.48 0.49 0.42 0.36 0.41 0.25 0.06 0.05 0.12 0.23 0.27 0.21 0.18 0.16 0.11 0.12 0.16 0.21 0.27 0.33 0.41 0.55 0.72 0.96 1.31
0.01 0.01 0.03 0.08 0.15 0.22 0.20 0.17 0.21 0.22 0.21 0.22 0.25 0.31 0.36 0.40 0.39 0.42 0.52 0.56 0.50 0.42 0.42 0.38 0.18 0.08 0.11 0.23 0.33 0.31 0.26 0.24 0.18 0.15 0.16 0.19 0.24 0.30 0.37 0.45 0.59 0.76 0.93
0.01 0.01 0.02 0.07 0.18 0.31 0.34 0.35 0.38 0.33 0.27 0.21 0.20 0.25 0.36 0.50 0.55 0.59 0.60 0.59 0.60 0.61 0.56 0.51 0.36 0.21 0.18 0.25 0.41 0.46 0.40 0.34 0.29 0.23 0.20 0.19 0.22 0.28 0.32 0.35 0.39 0.50 0.69
0.01 0.01 0.02 0.04 0.14 0.40 0.65 0.83 0.74 0.48 0.31 0.23 0.18 0.20 0.31 0.52 0.69 0.88 0.95 0.84 0.83 0.90 0.85 0.79 0.66 0.49 0.37 0.39 0.49 0.53 0.59 0.49 0.43 0.35 0.26 0.20 0.21 0.20 0.21 0.26 0.31 0.36 0.48
0.01 0.01 0.02 0.03 0.09 0.37 0.73 0.97 0.70 0.38 0.26 0.23 0.21 0.20 0.28 0.49 0.63 0.73 0.87 0.90 0.96 1.12 1.18 1.11 0.97 0.78 0.55 0.46 0.49 0.61 0.74 0.80 0.67 0.49 0.39 0.30 0.28 0.25 0.21 0.20 0.25 0.30 0.40
0.01 0.02 0.02 0.02 0.04 0.20 0.57 0.83 0.58 0.30 0.22 0.20 0.20 0.19 0.23 0.35 0.47 0.56 0.60 0.63 0.69 0.85 1.10 1.23 1.19 0.88 0.69 0.56 0.67 0.79 0.80 0.89 0.79 0.72 0.70 0.60 0.40 0.33 0.27 0.28 0.32 0.32 0.38
0.02 0.02 0.02 0.02 0.02 0.10 0.43 0.72 0.53 0.26 0.18 0.17 0.19 0.16 0.14 0.22 0.35 0.53 0.62 0.58 0.54 0.63 0.87 1.12 1.29 1.11 0.92 0.88 1.04 1.19 1.20 1.15 0.98 0.93 0.92 0.98 0.69 0.48 0.39 0.35 0.35 0.32 0.36
0.02 0.02 0.02 0.02 0.02 0.04 0.29 0.68 0.55 0.25 0.17 0.15 0.17 0.16 0.12 0.14 0.28 0.48 0.52 0.48 0.42 0.48 0.61 0.85 1.01 1.03 1.01 1.13 1.35 1.65 1.72 1.61 1.35 1.11 1.03 1.04 1.00 0.86 0.76 0.61 0.51 0.43 0.38
0.02 0.02 0.02 0.02 0.02 0.02 0.15 0.56 0.64 0.28 0.17 0.13 0.14 0.14 0.16 0.22 0.31 0.40 0.41 0.44 0.53 0.48 0.46 0.49 0.53 0.55 0.61 0.73 1.05 1.47 1.70 1.71 1.48 1.39 1.24 1.10 1.16 1.19 1.35 1.10 0.79 0.56 0.44

GEFSMA_prec_meanprecacc_126.txt.gz
Total_Precipitation_Accumulation
0.02 0.01 0.01 0.01 0.01 0.02 0.02 0.03 0.05 0.08 0.09 0.09 0.11 0.11 0.12 0.11 0.09 0.10 0.09 0.10 0.10 0.09 0.10 0.18 0.35 0.67 0.98 1.07 1.14 1.06 0.95 0.90 0.77 0.63 0.61 0.73 0.82 0.80 0.74 0.80 0.74 0.58 0.52
0.02 0.02 0.01 0.01 0.01 0.01 0.01 0.01 0.01 0.02 0.03 0.03 0.04 0.05 0.07 0.08 0.08 0.11 0.12 0.14 0.13 0.11 0.10 0.12 0.20 0.39 0.73 0.99 1.16 1.34 1.19 1.06 1.01 0.83 0.65 0.64 0.73 0.78 0.79 0.79 0.83 0.74 0.60
0.02 0.02 0.02 0.02 0.01 0.01 0.01 0.01 0.01 0.01 0.01 0.01 0.01 0.01 0.02 0.03 0.05 0.08 0.10 0.13 0.17 0.15 0.13 0.12 0.13 0.21 0.40 0.69 0.97 1.30 1.49 1.27 1.19 1.14 0.92 0.68 0.66 0.73 0.79 0.84 0.87 0.91 0.79
0.02 0.02 0.02 0.02 0.02 0.02 0.01 0.01 0.01 0.01 0.01 0.01 0.01 0.01 0.00 0.01 0.01 0.03 0.05 0.08 0.14 0.17 0.15 0.15 0.14 0.15 0.24 0.41 0.67 1.02 1.61 1.60 1.43 1.38 1.35 1.05 0.78 0.73 0.75 0.82 0.89 0.93 1.00
0.02 0.02 0.03 0.03 0.02 0.02 0.01 0.01 0.01 0.01 0.01 0.01 0.01 0.01 0.00 0.00 0.00 0.00 0.01 0.03 0.06 0.13 0.17 0.17 0.18 0.17 0.17 0.23 0.42 0.74 1.37 1.74 1.76 1.72 1.69 1.54 1.17 0.89 0.81 0.81 0.89 0.95 1.04
0.01 0.02 0.03 0.02 0.02 0.02 0.02 0.01 0.02 0.01 0.02 0.02 0.01 0.01 0.00 0.00 0.00 0.00 0.00 0.01 0.02 0.05 0.11 0.15 0.18 0.18 0.16 0.16 0.22 0.39 0.80 1.29 1.59 1.77 1.84 1.91 1.74 1.28 0.98 0.88 0.89 0.99 1.06
0.01 0.02 0.02 0.02 0.02 0.02 0.02 0.02 0.02 0.02 0.02 0.02 0.03 0.02 0.01 0.00 0.00 0.00 0.00 0.00 0.01 0.01 0.04 0.08 0.15 0.20 0.19 0.17 0.16 0.19 0.36 0.73 1.13 1.43 1.61 1.80 2.05 1.87 1.39 1.09 0.98 1.02 1.13
0.01 0.01 0.02 0.02 0.02 0.03 0.03 0.03 0.03 0.03 0.03 0.02 0.06 0.11 0.05 0.01 0.00 0.00 0.00 0.00 0.00 0.01 0.02 0.04 0.08 0.15 0.20 0.20 0.14 0.13 0.17 0.37 0.75 1.16 1.43 1.61 1.90 2.18 1.97 1.48 1.21 1.16 1.22
0.01 0.01 0.01 0.01 0.01 0.02 0.02 0.02 0.02 0.03 0.05 0.02 0.05 0.19 0.29 0.17 0.05 0.01 0.00 0.01 0.01 0.01 0.01 0.02 0.05 0.08 0.14 0.21 0.19 0.13 0.11 0.18 0.40 0.78 1.26 1.57 1.80 2.10 2.27 2.02 1.59 1.35 1.34
0.01 0.01 0.01 0.01 0.01 0.01 0.02 0.02 0.02 0.03 0.07 0.08 0.05 0.08 0.19 0.26 0.29 0.14 0.02 0.02 0.03 0.03 0.02 0.02 0.03 0.05 0.08 0.15 0.21 0.21 0.16 0.15 0.24 0.50 0.91 1.47 1.87 2.11 2.45 2.41 2.09 1.69 1.50
0.01 0.01 0.01 0.01 0.01 0.01 0.02 0.02 0.03 0.04 0.07 0.12 0.13 0.11 0.10 0.10 0.16 0.25 0.12 0.03 0.04 0.04 0.04 0.03 0.03 0.04 0.05 0.10 0.15 0.20 0.24 0.25 0.33 0.45 0.69 1.15 1.86 2.21 2.62 2.83 2.51 2.02 1.69
0.02 0.02 0.01 0.02 0.01 0.02 0.02 0.03 0.04 0.05 0.07 0.09 0.12 0.14 0.17 0.20 0.16 0.22 0.21 0.07 0.03 0.03 0.04 0.04 0.05 0.07 0.09 0.10 0.12 0.21 0.28 0.33 0.43 0.48 0.52 0.80 1.38 2.06 2.51 2.85 2.74 2.26 1.85
0.03 0.02 0.02 0.02 0.02 0.02 0.03 0.04 0.06 0.06 0.07 0.10 0.11 0.13 0.15 0.16 0.17 0.22 0.27 0.16 0.07 0.02 0.02 0.03 0.05 0.08 0.11 0.13 0.14 0.19 0.24 0.30 0.37 0.42 0.42 0.51 0.81 1.39 2.09 2.63 2.94 2.69 2.19
0.03 0.02 0.02 0.02 0.03 0.03 0.05 0.06 0.08 0.09 0.10 0.11 0.11 0.13 0.17 0.14 0.17 0.23 0.29 0.33 0.27 0.09 0.03 0.02 0.02 0.04 0.09 0.14 0.14 0.16 0.15 0.21 0.27 0.32 0.36 0.40 0.53 0.84 1.38 2.03 2.78 3.24 2.94
0.01 0.01 0.02 0.03 0.04 0.05 0.08 0.10 0.11 0.11 0.12 0.14 0.16 0.17 0.21 0.19 0.19 0.21 0.25 0.36 0.53 0.39 0.10 0.02 0.02 0.03 0.08 0.13 0.14 0.12 0.11 0.14 0.19 0.24 0.29 0.33 0.41 0.58 0.90 1.38 1.95 2.84 3.43
0.01 0.01 0.02 0.03 0.05 0.07 0.08 0.11 0.12 0.12 0.15 0.17 0.21 0.23 0.23 0.22 0.24 0.27 0.29 0.30 0.39 0.49 0.29 0.04 0.02 0.04 0.09 0.16 0.17 0.14 0.13 0.14 0.16 0.18 0.20 0.23 0.28 0.40 0.63 0.95 1.35 1.91 2.79
0.01 0.02 0.03 0.05 0.08 0.09 0.10 0.12 0.13 0.14 0.17 0.18 0.20 0.24 0.25 0.27 0.35 0.37 0.40 0.39 0.35 0.38 0.39 0.09 0.02 0.04 0.12 0.20 0.20 0.14 0.14 0.13 0.11 0.13 0.16 0.20 0.24 0.33 0.48 0.69 0.94 1.30 1.92
0.01 0.02 0.03 0.06 0.11 0.13 0.13 0.15 0.16 0.17 0.20 0.22 0.23 0.26 0.29 0.31 0.37 0.42 0.49 0.50 0.42 0.36 0.41 0.26 0.06 0.05 0.12 0.23 0.27 0.21 0.18 0.16 0.11 0.12 0.16 0.21 0.27 0.33 0.42 0.55 0.73 0.97 1.32
0.01 0.01 0.03 0.08 0.16 0.22 0.21 0.18 0.22 0.23 0.22 0.23 0.26 0.32 0.37 0.40 0.39 0.42 0.52 0.56 0.50 0.42 0.42 0.38 0.18 0.08 0.12 0.23 0.33 0.31 0.26 0.24 0.18 0.15 0.16 0.19 0.24 0.31 0.37 0.46 0.60 0.76 0.94
0.01 0.01 0.03 0.07 0.19 0.32 0.34 0.36 0.39 0.34 0.28 0.22 0.21 0.25 0.37 0.51 0.55 0.59 0.61 0.59 0.60 0.61 0.56 0.52 0.36 0.21 0.18 0.25 0.41 0.47 0.40 0.34 0.29 0.23 0.20 0.19 0.22 0.28 0.32 0.35 0.39 0.51 0.69
0.01 0.02 0.02 0.04 0.15 0.41 0.66 0.84 0.76 0.49 0.32 0.24 0.18 0.20 0.32 0.53 0.70 0.89 0.95 0.84 0.83 0.90 0.85 0.79 0.66 0.49 0.37 0.40 0.49 0.53 0.59 0.49 0.44 0.35 0.26 0.21 0.21 0.20 0.21 0.26 0.31 0.37 0.48
0.01 0.02 0.02 0.03 0.09 0.37 0.74 0.98 0.71 0.38 0.27 0.23 0.22 0.21 0.29 0.49 0.63 0.73 0.87 0.90 0.96 1.12 1.19 1.11 0.97 0.78 0.55 0.46 0.50 0.61 0.75 0.80 0.68 0.50 0.39 0.30 0.28 0.26 0.21 0.20 0.25 0.31 0.40
0.02 0.02 0.02 0.03 0.04 0.20 0.57 0.84 0.59 0.30 0.22 0.21 0.21 0.20 0.24 0.36 0.48 0.56 0.60 0.63 0.69 0.85 1.10 1.23 1.19 0.88 0.69 0.57 0.67 0.79 0.81 0.90 0.80 0.73 0.70 0.61 0.40 0.34 0.27 0.28 0.32 0.32 0.39
0.02 0.02 0.02 0.02 0.03 0.10 0.44 0.73 0.53 0.27 0.19 0.18 0.19 0.17 0.14 0.22 0.35 0.53 0.62 0.58 0.54 0.63 0.88 1.12 1.30 1.11 0.92 0.89 1.04 1.20 1.21 1.16 0.99 0.93 0.93 0.99 0.69 0.48 0.39 0.35 0.35 0.33 0.36
0.03 0.03 0.02 0.02 0.02 0.04 0.29 0.68 0.56 0.26 0.17 0.16 0.17 0.16 0.12 0.14 0.29 0.48 0.52 0.48 0.42 0.48 0.61 0.85 1.01 1.04 1.02 1.13 1.35 1.65 1.73 1.63 1.36 1.12 1.03 1.05 1.00 0.87 0.76 0.62 0.51 0.43 0.38
0.03 0.02 0.02 0.02 0.02 0.02 0.16 0.57 0.64 0.28 0.17 0.14 0.15 0.15 0.17 0.22 0.32 0.41 0.42 0.45 0.53 0.49 0.46 0.49 0.53 0.56 0.62 0.73 1.05 1.48 1.71 1.73 1.50 1.40 1.24 1.11 1.17 1.20 1.36 1.10 0.79 0.56 0.44

GEFSMA_prec_meanprecacc_132.txt.gz
Total_Precipitation_Accumulation
0.02 0.01 0.01 0.01 0.02 0.02 0.02 0.04 0.05 0.08 0.09 0.09 0.11 0.11 0.12 0.11 0.09 0.10 0.09 0.10 0.10 0.09 0.11 0.19 0.35 0.67 0.99 1.07 1.14 1.06 0.95 0.90 0.77 0.63 0.61 0.73 0.83 0.80 0.75 0.80 0.75 0.59 0.54
0.02 0.02 0.02 0.01 0.01 0.01 0.01 0.01 0.01 0.02 0.03 0.03 0.04 0.05 0.07 0.08 0.08 0.11 0.12 0.14 0.13 0.11 0.10 0.12 0.20 0.39 0.73 0.99 1.16 1.34 1.19 1.06 1.01 0.83 0.65 0.64 0.73 0.79 0.80 0.80 0.84 0.75 0.61
0.02 0.02 0.02 0.02 0.01 0.01 0.01 0.01 0.01 0.01 0.01 0.01 0.01 0.01 0.02 0.03 0.05 0.08 0.10 0.13 0.17 0.15 0.13 0.12 0.13 0.21 0.40 0.69 0.97 1.30 1.49 1.27 1.20 1.15 0.92 0.69 0.66 0.73 0.79 0.84 0.87 0.92 0.80
0.02 0.02 0.02 0.02 0.02 0.02 0.02 0.02 0.02 0.01 0.02 0.01 0.01 0.01 0.01 0.01 0.01 0.03 0.05 0.08 0.14 0.17 0.15 0.15 0.14 0.15 0.24 0.41 0.67 1.02 1.61 1.60 1.43 1.38 1.35 1.05 0.78 0.74 0.75 0.82 0.89 0.94 1.00
0.02 0.02 0.03 0.03 0.02 0.02 0.02 0.02 0.01 0.01 0.02 0.01 0.01 0.01 0.01 0.00 0.00 0.00 0.01 0.03 0.06 0.13 0.17 0.17 0.18 0.17 0.17 0.23 0.42 0.74 1.37 1.74 1.76 1.72 1.69 1.55 1.17 0.90 0.81 0.81 0.89 0.96 1.04
0.01 0.02 0.03 0.02 0.02 0.02 0.02 0.02 0.02 0.02 0.02 0.02 0.01 0.01 0.00 0.00 0.00 0.00 0.00 0.01 0.02 0.05 0.11 0.15 0.18 0.18 0.16 0.16 0.22 0.39 0.80 1.29 1.59 1.77 1.84 1.91 1.74 1.28 0.98 0.89 0.89 1.00 1.06
0.01 0.02 0.02 0.02 0.02 0.03 0.02 0.02 0.02 0.02 0.02 0.02 0.03 0.02 0.01 0.00 0.00 0.00 0.00 0.00 0.01 0.01 0.04 0.08 0.15 0.20 0.19 0.17 0.16 0.19 0.36 0.73 1.13 1.43 1.61 1.80 2.06 1.87 1.39 1.10 0.99 1.02 1.14
0.01 0.02 0.02 0.02 0.03 0.03 0.03 0.03 0.03 0.03 0.03 0.03 0.06 0.11 0.06 0.01 0.00 0.00 0.00 0.00 0.00 0.01 0.02 0.04 0.08 0.15 0.20 0.20 0.14 0.13 0.17 0.37 0.75 1.16 1.43 1.61 1.90 2.18 1.97 1.48 1.21 1.16 1.23
0.01 0.01 0.01 0.02 0.02 0.02 0.02 0.02 0.02 0.04 0.05 0.03 0.05 0.20 0.29 0.17 0.05 0.01 0.00 0.01 0.01 0.01 0.01 0.02 0.05 0.08 0.14 0.21 0.19 0.13 0.11 0.18 0.40 0.78 1.26 1.57 1.80 2.10 2.27 2.02 1.59 1.36 1.35
0.01 0.01 0.01 0.01 0.01 0.01 0.02 0.02 0.02 0.03 0.07 0.09 0.05 0.08 0.19 0.26 0.29 0.14 0.02 0.02 0.03 0.03 0.02 0.02 0.03 0.05 0.08 0.15 0.21 0.21 0.16 0.15 0.24 0.50 0.91 1.47 1.87 2.11 2.45 2.42 2.10 1.70 1.51
0.01 0.01 0.01 0.01 0.01 0.01 0.02 0.02 0.03 0.04 0.08 0.12 0.13 0.12 0.10 0.10 0.16 0.26 0.12 0.03 0.04 0.04 0.04 0.03 0.03 0.04 0.05 0.10 0.15 0.20 0.24 0.25 0.33 0.45 0.69 1.15 1.86 2.21 2.62 2.83 2.52 2.03 1.70
0.02 0.02 0.02 0.02 0.02 0.02 0.02 0.03 0.04 0.05 0.07 0.09 0.12 0.14 0.18 0.20 0.16 0.22 0.21 0.07 0.03 0.03 0.04 0.04 0.05 0.07 0.09 0.10 0.12 0.21 0.28 0.33 0.43 0.48 0.52 0.80 1.38 2.06 2.51 2.85 2.75 2.27 1.86
0.03 0.02 0.02 0.02 0.02 0.02 0.03 0.04 0.06 0.07 0.07 0.10 0.12 0.13 0.15 0.16 0.17 0.23 0.28 0.17 0.08 0.03 0.02 0.03 0.05 0.08 0.11 0.13 0.14 0.19 0.24 0.30 0.37 0.42 0.42 0.51 0.81 1.39 2.09 2.63 2.94 2.70 2.19
0.03 0.02 0.02 0.02 0.03 0.03 0.05 0.07 0.08 0.09 0.10 0.12 0.12 0.13 0.17 0.15 0.18 0.25 0.32 0.35 0.28 0.09 0.03 0.02 0.02 0.04 0.09 0.14 0.14 0.16 0.15 0.21 0.27 0.32 0.36 0.40 0.53 0.84 1.39 2.03 2.78 3.25 2.94
0.02 0.01 0.02 0.03 0.04 0.05 0.08 0.10 0.11 0.11 0.13 0.14 0.16 0.18 0.22 0.19 0.20 0.22 0.25 0.36 0.53 0.39 0.10 0.02 0.02 0.04 0.08 0.13 0.14 0.12 0.11 0.14 0.19 0.24 0.29 0.33 0.41 0.58 0.90 1.38 1.95 2.85 3.44
0.01 0.01 0.02 0.04 0.05 0.07 0.09 0.11 0.13 0.13 0.15 0.18 0.22 0.23 0.23 0.23 0.25 0.27 0.29 0.30 0.39 0.49 0.29 0.04 0.02 0.04 0.09 0.16 0.17 0.14 0.13 0.14 0.16 0.18 0.20 0.23 0.29 0.41 0.63 0.95 1.36 1.92 2.80
0.01 0.02 0.03 0.05 0.08 0.10 0.10 0.13 0.14 0.15 0.18 0.19 0.20 0.24 0.25 0.27 0.35 0.37 0.40 0.39 0.35 0.39 0.39 0.09 0.02 0.05 0.12 0.20 0.20 0.14 0.14 0.13 0.11 0.14 0.16 0.20 0.24 0.33 0.48 0.70 0.95 1.31 1.93
0.01 0.02 0.03 0.06 0.11 0.13 0.13 0.16 0.17 0.17 0.21 0.22 0.24 0.27 0.30 0.32 0.38 0.42 0.50 0.51 0.43 0.37 0.42 0.26 0.07 0.05 0.12 0.23 0.27 0.21 0.18 0.16 0.11 0.12 0.16 0.21 0.27 0.33 0.42 0.56 0.74 0.98 1.33
0.01 0.01 0.03 0.08 0.16 0.22 0.21 0.19 0.23 0.24 0.23 0.25 0.27 0.34 0.38 0.41 0.40 0.43 0.53 0.57 0.51 0.43 0.43 0.39 0.18 0.08 0.12 0.23 0.33 0.31 0.26 0.24 0.18 0.15 0.16 0.19 0.24 0.31 0.38 0.46 0.61 0.77 0.95
0.01 0.02 0.03 0.07 0.19 0.32 0.35 0.36 0.40 0.35 0.29 0.23 0.21 0.26 0.38 0.52 0.56 0.60 0.62 0.60 0.62 0.62 0.57 0.52 0.36 0.21 0.18 0.25 0.41 0.47 0.40 0.34 0.29 0.23 0.20 0.19 0.22 0.28 0.33 0.36 0.40 0.51 0.70
0.01 0.02 0.03 0.04 0.15 0.41 0.66 0.84 0.76 0.50 0.33 0.25 0.19 0.21 0.33 0.54 0.71 0.90 0.96 0.85 0.85 0.91 0.86 0.80 0.67 0.49 0.37 0.40 0.49 0.54 0.60 0.49 0.44 0.35 0.26 0.21 0.21 0.21 0.21 0.27 0.32 0.37 0.49
0.02 0.02 0.02 0.03 0.09 0.37 0.75 0.98 0.71 0.39 0.28 0.24 0.23 0.22 0.29 0.50 0.65 0.75 0.88 0.91 0.98 1.13 1.19 1.12 0.97 0.78 0.55 0.46 0.50 0.62 0.75 0.81 0.68 0.50 0.39 0.31 0.28 0.26 0.21 0.20 0.25 0.31 0.41
0.02 0.02 0.03 0.03 0.05 0.21 0.58 0.84 0.59 0.30 0.22 0.21 0.21 0.20 0.24 0.36 0.48 0.57 0.61 0.64 0.70 0.86 1.11 1.24 1.19 0.89 0.70 0.57 0.68 0.80 0.81 0.91 0.81 0.73 0.71 0.61 0.40 0.34 0.27 0.28 0.32 0.33 0.40
0.03 0.02 0.03 0.03 0.03 0.10 0.44 0.73 0.54 0.27 0.19 0.18 0.19 0.17 0.15 0.22 0.36 0.54 0.63 0.59 0.55 0.63 0.88 1.13 1.30 1.12 0.93 0.89 1.05 1.21 1.22 1.17 1.00 0.94 0.93 1.00 0.70 0.49 0.39 0.35 0.36 0.33 0.37
0.03 0.03 0.03 0.02 0.02 0.05 0.30 0.69 0.56 0.26 0.18 0.16 0.18 0.16 0.13 0.14 0.29 0.49 0.53 0.48 0.42 0.49 0.61 0.85 1.01 1.04 1.02 1.14 1.36 1.67 1.74 1.64 1.37 1.12 1.04 1.06 1.01 0.87 0.76 0.62 0.51 0.43 0.38
0.03 0.03 0.02 0.02 0.02 0.03 0.16 0.57 0.64 0.29 0.18 0.15 0.16 0.15 0.18 0.23 0.32 0.41 0.42 0.45 0.54 0.49 0.46 0.50 0.53 0.56 0.62 0.73 1.06 1.49 1.72 1.74 1.52 1.42 1.25 1.12 1.18 1.21 1.37 1.10 0.79 0.56 0.44

GEFSMA_prec_meanprecacc_138.txt.gz
Total_Precipitation_Accumulation
0.02 0.01 0.01 0.01 0.02 0.02 0.02 0.04 0.05 0.08 0.09 0.09 0.11 0.11 0.12 0.11 0.09 0.10 0.09 0.10 0.10 0.09 0.11 0.19 0.35 0.67 0.99 1.07 1.14 1.06 0.95 0.90 0.77 0.63 0.61 0.74 0.83 0.80 0.75 0.81 0.75 0.60 0.54
0.02 0.02 0.02 0.01 0.01 0.01 0.01 0.01 0.01 0.02 0.03 0.03 0.04 0.05 0.07 0.08 0.08 0.11 0.12 0.14 0.13 0.11 0.10 0.12 0.20 0.39 0.73 0.99 1.16 1.34 1.19 1.06 1.01 0.84 0.65 0.64 0.74 0.79 0.80 0.80 0.84 0.76 0.61
0.02 0.02 0.02 0.02 0.01 0.01 0.01 0.01 0.01 0.01 0.01 0.01 0.01 0.01 0.02 0.03 0.05 0.08 0.10 0.13 0.17 0.15 0.13 0.12 0.13 0.21 0.40 0.69 0.97 1.30 1.49 1.27 1.20 1.15 0.92 0.69 0.66 0.73 0.79 0.85 0.87 0.92 0.80
0.02 0.02 0.03 0.02 0.02 0.02 0.02 0.02 0.02 0.01 0.02 0.01 0.01 0.01 0.01 0.01 0.01 0.03 0.05 0.08 0.14 0.17 0.15 0.15 0.14 0.15 0.24 0.41 0.67 1.02 1.61 1.60 1.43 1.38 1.35 1.05 0.78 0.74 0.75 0.82 0.90 0.94 1.01
0.02 0.02 0.03 0.03 0.02 0.02 0.02 0.02 0.01 0.01 0.02 0.01 0.01 0.01 0.01 0.00 0.00 0.00 0.01 0.03 0.06 0.13 0.17 0.17 0.18 0.17 0.17 0.23 0.42 0.74 1.37 1.74 1.76 1.72 1.69 1.55 1.17 0.90 0.81 0.81 0.90 0.96 1.05
0.02 0.02 0.03 0.02 0.02 0.02 0.02 0.02 0.02 0.02 0.02 0.02 0.01 0.01 0.00 0.00 0.00 0.00 0.00 0.01 0.02 0.05 0.11 0.15 0.18 0.18 0.16 0.16 0.22 0.39 0.80 1.29 1.59 1.77 1.84 1.91 1.74 1.28 0.99 0.89 0.89 1.00 1.07
0.01 0.02 0.02 0.02 0.02 0.03 0.02 0.02 0.02 0.02 0.02 0.02 0.03 0.02 0.01 0.00 0.00 0.00 0.00 0.00 0.01 0.01 0.04 0.08 0.15 0.20 0.19 0.17 0.16 0.19 0.36 0.73 1.13 1.43 1.61 1.80 2.06 1.87 1.39 1.10 0.99 1.03 1.15
0.01 0.02 0.02 0.02 0.03 0.03 0.03 0.03 0.03 0.03 0.03 0.03 0.06 0.11 0.06 0.01 0.00 0.00 0.00 0.00 0.00 0.01 0.02 0.04 0.08 0.15 0.20 0.20 0.14 0.13 0.17 0.37 0.75 1.16 1.43 1.61 1.90 2.18 1.97 1.49 1.22 1.17 1.24
0.01 0.01 0.01 0.02 0.02 0.02 0.02 0.02 0.02 0.04 0.05 0.03 0.05 0.20 0.29 0.17 0.05 0.01 0.00 0.01 0.01 0.01 0.01 0.02 0.05 0.08 0.14 0.21 0.19 0.13 0.11 0.18 0.40 0.78 1.26 1.57 1.80 2.10 2.28 2.03 1.60 1.36 1.36
0.01 0.01 0.01 0.01 0.02 0.01 0.02 0.02 0.02 0.03 0.07 0.09 0.05 0.08 0.19 0.26 0.29 0.14 0.02 0.02 0.03 0.03 0.02 0.02 0.03 0.05 0.08 0.15 0.21 0.21 0.16 0.15 0.24 0.50 0.91 1.47 1.87 2.11 2.46 2.42 2.11 1.71 1.53
0.01 0.01 0.02 0.02 0.02 0.02 0.02 0.02 0.03 0.04 0.08 0.13 0.13 0.12 0.10 0.10 0.16 0.26 0.12 0.03 0.04 0.04 0.04 0.03 0.03 0.04 0.05 0.10 0.15 0.20 0.24 0.25 0.33 0.45 0.69 1.15 1.86 2.21 2.62 2.84 2.53 2.05 1.72
0.02 0.02 0.02 0.02 0.02 0.02 0.02 0.03 0.04 0.05 0.07 0.09 0.12 0.14 0.18 0.20 0.16 0.22 0.21 0.07 0.03 0.03 0.04 0.04 0.05 0.07 0.09 0.10 0.12 0.21 0.28 0.33 0.43 0.48 0.52 0.80 1.38 2.07 2.51 2.86 2.76 2.28 1.88
0.03 0.02 0.02 0.02 0.02 0.02 0.03 0.04 0.06 0.07 0.07 0.10 0.12 0.13 0.15 0.16 0.17 0.23 0.28 0.17 0.08 0.03 0.02 0.03 0.05 0.08 0.11 0.13 0.14 0.19 0.24 0.30 0.37 0.42 0.42 0.51 0.81 1.39 2.09 2.64 2.95 2.71 2.21
0.03 0.02 0.02 0.03 0.03 0.03 0.05 0.07 0.08 0.09 0.10 0.12 0.12 0.13 0.17 0.15 0.18 0.25 0.32 0.36 0.28 0.09 0.03 0.02 0.02 0.04 0.09 0.14 0.14 0.16 0.15 0.21 0.27 0.32 0.36 0.40 0.53 0.84 1.39 2.04 2.79 3.26 2.96
0.02 0.01 0.02 0.03 0.04 0.05 0.08 0.10 0.11 0.11 0.13 0.14 0.16 0.18 0.22 0.19 0.20 0.22 0.26 0.37 0.54 0.40 0.10 0.02 0.02 0.04 0.08 0.13 0.14 0.12 0.11 0.14 0.19 0.24 0.29 0.33 0.41 0.59 0.90 1.39 1.96 2.86 3.45
0.01 0.02 0.02 0.04 0.06 0.08 0.09 0.11 0.13 0.13 0.15 0.18 0.22 0.24 0.24 0.23 0.25 0.28 0.30 0.31 0.40 0.50 0.30 0.04 0.03 0.04 0.09 0.16 0.17 0.14 0.13 0.15 0.16 0.18 0.20 0.23 0.29 0.41 0.64 0.96 1.36 1.93 2.82
0.02 0.02 0.03 0.05 0.09 0.10 0.11 0.13 0.14 0.15 0.19 0.19 0.21 0.25 0.26 0.28 0.36 0.39 0.42 0.41 0.37 0.41 0.41 0.10 0.03 0.05 0.12 0.20 0.20 0.15 0.14 0.13 0.11 0.14 0.16 0.20 0.25 0.33 0.49 0.70 0.96 1.32 1.94
0.02 0.02 0.03 0.06 0.11 0.13 0.14 0.17 0.18 0.18 0.21 0.23 0.25 0.29 0.31 0.33 0.39 0.44 0.51 0.52 0.45 0.39 0.43 0.27 0.07 0.05 0.13 0.23 0.27 0.21 0.18 0.16 0.11 0.12 0.16 0.21 0.27 0.34 0.43 0.57 0.75 0.99 1.34
0.02 0.02 0.04 0.09 0.16 0.23 0.21 0.19 0.23 0.25 0.24 0.25 0.29 0.35 0.39 0.43 0.42 0.44 0.55 0.59 0.53 0.45 0.44 0.41 0.20 0.09 0.12 0.24 0.34 0.32 0.26 0.24 0.18 0.15 0.17 0.20 0.24 0.31 0.38 0.47 0.61 0.78 0.96
0.02 0.03 0.04 0.08 0.19 0.32 0.35 0.37 0.40 0.35 0.29 0.24 0.22 0.27 0.40 0.54 0.59 0.64 0.65 0.63 0.64 0.64 0.59 0.54 0.38 0.22 0.19 0.26 0.42 0.47 0.40 0.34 0.29 0.24 0.20 0.19 0.22 0.28 0.33 0.36 0.40 0.52 0.70
0.02 0.03 0.04 0.05 0.16 0.42 0.67 0.85 0.76 0.50 0.33 0.25 0.20 0.23 0.35 0.58 0.76 0.94 1.00 0.88 0.87 0.93 0.88 0.82 0.69 0.51 0.38 0.41 0.50 0.54 0.60 0.50 0.44 0.36 0.27 0.21 0.21 0.21 0.21 0.27 0.32 0.37 0.50
0.02 0.03 0.03 0.04 0.10 0.38 0.76 0.99 0.72 0.39 0.28 0.25 0.24 0.23 0.31 0.53 0.67 0.77 0.91 0.93 0.99 1.14 1.21 1.13 0.99 0.79 0.56 0.47 0.51 0.63 0.76 0.81 0.69 0.50 0.40 0.31 0.28 0.26 0.22 0.20 0.26 0.32 0.42
0.04 0.03 0.04 0.04 0.05 0.21 0.59 0.85 0.60 0.31 0.23 0.22 0.23 0.22 0.26 0.38 0.50 0.58 0.63 0.66 0.72 0.88 1.12 1.24 1.20 0.90 0.71 0.58 0.69 0.81 0.82 0.91 0.81 0.73 0.72 0.62 0.40 0.34 0.27 0.28 0.32 0.33 0.41
0.04 0.04 0.04 0.04 0.04 0.11 0.45 0.74 0.55 0.29 0.20 0.19 0.21 0.19 0.17 0.24 0.37 0.55 0.64 0.60 0.55 0.64 0.89 1.13 1.31 1.13 0.94 0.90 1.06 1.22 1.23 1.18 1.00 0.94 0.94 1.00 0.70 0.49 0.39 0.35 0.36 0.33 0.37
0.05 0.04 0.03 0.03 0.03 0.06 0.31 0.70 0.58 0.27 0.19 0.18 0.19 0.17 0.14 0.15 0.31 0.50 0.54 0.49 0.43 0.50 0.62 0.86 1.02 1.04 1.03 1.15 1.37 1.67 1.74 1.65 1.38 1.12 1.04 1.06 1.01 0.87 0.76 0.62 0.51 0.43 0.38
0.04 0.04 0.03 0.03 0.03 0.04 0.18 0.58 0.66 0.30 0.20 0.16 0.17 0.16 0.19 0.24 0.33 0.42 0.43 0.46 0.54 0.50 0.47 0.50 0.54 0.57 0.62 0.74 1.06 1.49 1.73 1.75 1.53 1.44 1.26 1.13 1.19 1.22 1.37 1.10 0.79 0.56 0.44

GEFSMA_prec_meanprecacc_144.txt.gz
Total_Precipitation_Accumulation
0.02 0.01 0.01 0.01 0.02 0.02 0.02 0.04 0.05 0.08 0.09 0.09 0.11 0.11 0.12 0.11 0.09 0.10 0.09 0.10 0.11 0.10 0.11 0.19 0.35 0.68 0.99 1.07 1.14 1.06 0.95 0.90 0.77 0.64 0.61 0.74 0.83 0.80 0.75 0.81 0.75 0.60 0.54
0.02 0.02 0.02 0.01 0.01 0.01 0.01 0.01 0.01 0.02 0.03 0.03 0.04 0.05 0.07 0.08 0.08 0.11 0.12 0.14 0.13 0.11 0.10 0.12 0.20 0.39 0.73 0.99 1.16 1.34 1.19 1.06 1.01 0.84 0.65 0.64 0.74 0.79 0.80 0.80 0.85 0.76 0.62
0.02 0.02 0.02 0.02 0.02 0.01 0.01 0.01 0.01 0.01 0.01 0.01 0.01 0.01 0.02 0.03 0.05 0.08 0.10 0.13 0.17 0.15 0.13 0.12 0.13 0.22 0.41 0.69 0.97 1.30 1.49 1.27 1.20 1.15 0.92 0.69 0.66 0.73 0.79 0.85 0.88 0.92 0.80
0.02 0.02 0.03 0.03 0.02 0.02 0.02 0.02 0.02 0.01 0.02 0.01 0.01 0.01 0.01 0.01 0.01 0.03 0.05 0.08 0.14 0.17 0.15 0.15 0.14 0.15 0.24 0.41 0.67 1.02 1.61 1.60 1.43 1.38 1.35 1.05 0.78 0.74 0.75 0.83 0.90 0.94 1.01
0.02 0.02 0.03 0.03 0.03 0.02 0.02 0.02 0.01 0.01 0.02 0.01 0.01 0.01 0.01 0.00 0.00 0.00 0.01 0.03 0.06 0.13 0.17 0.17 0.18 0.17 0.17 0.24 0.42 0.74 1.37 1.74 1.76 1.72 1.69 1.55 1.17 0.90 0.82 0.82 0.90 0.96 1.05
0.02 0.02 0.03 0.03 0.03 0.03 0.02 0.02 0.02 0.02 0.02 0.02 0.01 0.01 0.00 0.00 0.00 0.00 0.00 0.01 0.02 0.05 0.11 0.15 0.18 0.18 0.16 0.16 0.22 0.39 0.81 1.29 1.59 1.77 1.84 1.92 1.74 1.29 0.99 0.89 0.90 1.01 1.07
0.01 0.02 0.02 0.02 0.02 0.03 0.03 0.02 0.02 0.02 0.02 0.02 0.03 0.02 0.01 0.00 0.00 0.00 0.00 0.00 0.01 0.01 0.04 0.08 0.15 0.20 0.19 0.17 0.16 0.19 0.36 0.73 1.14 1.43 1.61 1.81 2.06 1.87 1.40 1.10 1.00 1.04 1.16
0.02 0.02 0.02 0.03 0.03 0.03 0.03 0.03 0.03 0.03 0.03 0.03 0.06 0.11 0.06 0.01 0.00 0.00 0.00 0.00 0.00 0.01 0.02 0.04 0.08 0.15 0.20 0.20 0.14 0.13 0.17 0.37 0.75 1.16 1.43 1.62 1.90 2.19 1.98 1.50 1.23 1.18 1.25
0.01 0.01 0.01 0.02 0.02 0.02 0.02 0.02 0.02 0.04 0.05 0.03 0.05 0.20 0.29 0.17 0.05 0.01 0.00 0.01 0.01 0.01 0.01 0.02 0.05 0.08 0.14 0.21 0.19 0.13 0.11 0.18 0.40 0.78 1.26 1.57 1.80 2.11 2.29 2.04 1.61 1.37 1.37
0.01 0.01 0.01 0.02 0.02 0.02 0.02 0.02 0.02 0.04 0.07 0.09 0.05 0.08 0.19 0.26 0.29 0.14 0.02 0.02 0.03 0.03 0.02 0.02 0.03 0.05 0.08 0.15 0.21 0.21 0.16 0.15 0.24 0.50 0.91 1.47 1.87 2.12 2.46 2.43 2.11 1.72 1.54
0.01 0.02 0.02 0.02 0.02 0.02 0.02 0.02 0.03 0.04 0.08 0.13 0.13 0.12 0.10 0.10 0.16 0.26 0.12 0.03 0.04 0.04 0.04 0.03 0.03 0.04 0.05 0.10 0.15 0.20 0.24 0.25 0.33 0.45 0.69 1.15 1.86 2.21 2.62 2.85 2.54 2.05 1.72
0.02 0.02 0.02 0.02 0.02 0.02 0.03 0.03 0.04 0.05 0.07 0.10 0.12 0.14 0.18 0.20 0.16 0.22 0.21 0.07 0.03 0.03 0.04 0.04 0.05 0.07 0.09 0.10 0.12 0.21 0.28 0.33 0.43 0.48 0.52 0.80 1.38 2.07 2.51 2.86 2.76 2.28 1.89
0.03 0.02 0.02 0.02 0.02 0.02 0.03 0.04 0.06 0.07 0.07 0.10 0.12 0.13 0.15 0.16 0.17 0.23 0.28 0.17 0.08 0.03 0.02 0.03 0.05 0.08 0.11 0.13 0.14 0.19 0.24 0.30 0.37 0.42 0.42 0.51 0.81 1.39 2.09 2.64 2.95 2.71 2.22
0.03 0.02 0.02 0.03 0.03 0.04 0.05 0.07 0.08 0.09 0.10 0.12 0.12 0.14 0.17 0.15 0.18 0.26 0.32 0.36 0.29 0.10 0.03 0.02 0.02 0.04 0.09 0.14 0.14 0.16 0.15 0.21 0.27 0.32 0.36 0.40 0.53 0.85 1.39 2.04 2.80 3.27 2.97
0.03 0.02 0.02 0.03 0.04 0.06 0.08 0.10 0.12 0.12 0.13 0.15 0.16 0.18 0.22 0.20 0.20 0.22 0.26 0.37 0.55 0.41 0.11 0.02 0.02 0.04 0.08 0.13 0.14 0.13 0.11 0.14 0.19 0.24 0.29 0.33 0.41 0.59 0.91 1.39 1.97 2.87 3.46
0.03 0.02 0.03 0.04 0.06 0.08 0.09 0.12 0.14 0.13 0.16 0.18 0.22 0.24 0.24 0.23 0.26 0.28 0.31 0.32 0.41 0.52 0.31 0.05 0.03 0.04 0.09 0.16 0.18 0.14 0.13 0.15 0.16 0.18 0.20 0.23 0.29 0.41 0.64 0.96 1.37 1.94 2.83
0.04 0.03 0.04 0.06 0.09 0.11 0.11 0.14 0.14 0.16 0.19 0.19 0.21 0.26 0.27 0.29 0.37 0.40 0.43 0.42 0.38 0.42 0.43 0.11 0.03 0.06 0.14 0.21 0.21 0.15 0.15 0.14 0.11 0.14 0.17 0.21 0.25 0.33 0.49 0.71 0.97 1.33 1.96
0.04 0.04 0.04 0.07 0.12 0.14 0.14 0.17 0.18 0.18 0.22 0.24 0.26 0.30 0.33 0.36 0.41 0.46 0.53 0.53 0.46 0.40 0.46 0.30 0.10 0.07 0.14 0.25 0.28 0.22 0.18 0.16 0.12 0.12 0.16 0.21 0.28 0.34 0.43 0.58 0.75 1.00 1.36
0.05 0.04 0.05 0.10 0.17 0.24 0.22 0.20 0.24 0.25 0.25 0.27 0.30 0.37 0.42 0.45 0.44 0.46 0.56 0.62 0.57 0.50 0.50 0.45 0.23 0.11 0.14 0.25 0.35 0.32 0.27 0.25 0.19 0.15 0.17 0.20 0.25 0.32 0.39 0.47 0.62 0.79 0.97
0.06 0.05 0.06 0.10 0.21 0.34 0.36 0.37 0.41 0.37 0.31 0.26 0.25 0.30 0.41 0.56 0.62 0.67 0.69 0.68 0.69 0.69 0.63 0.58 0.42 0.25 0.21 0.27 0.43 0.48 0.41 0.35 0.29 0.24 0.21 0.19 0.22 0.29 0.33 0.37 0.41 0.53 0.72
0.06 0.06 0.07 0.08 0.18 0.43 0.68 0.86 0.77 0.52 0.36 0.28 0.22 0.24 0.36 0.59 0.79 0.98 1.04 0.93 0.92 0.98 0.92 0.85 0.72 0.53 0.40 0.41 0.51 0.54 0.60 0.50 0.44 0.36 0.27 0.21 0.21 0.21 0.22 0.27 0.32 0.38 0.51
0.07 0.06 0.06 0.07 0.12 0.40 0.77 1.01 0.73 0.41 0.30 0.27 0.25 0.24 0.32 0.55 0.70 0.81 0.95 0.97 1.02 1.17 1.23 1.15 1.00 0.80 0.57 0.48 0.52 0.63 0.76 0.82 0.69 0.51 0.40 0.31 0.29 0.26 0.22 0.21 0.26 0.32 0.43
0.08 0.07 0.07 0.07 0.08 0.24 0.61 0.87 0.62 0.33 0.25 0.24 0.24 0.24 0.28 0.41 0.54 0.61 0.66 0.68 0.73 0.89 1.13 1.25 1.20 0.90 0.72 0.59 0.69 0.81 0.82 0.92 0.82 0.74 0.72 0.62 0.41 0.34 0.27 0.28 0.33 0.34 0.41
0.08 0.08 0.08 0.07 0.07 0.14 0.48 0.77 0.58 0.31 0.22 0.21 0.23 0.22 0.20 0.27 0.40 0.57 0.65 0.61 0.56 0.65 0.90 1.14 1.32 1.13 0.94 0.91 1.06 1.22 1.23 1.18 1.01 0.95 0.94 1.01 0.70 0.49 0.40 0.36 0.36 0.33 0.38
0.09 0.08 0.08 0.08 0.07 0.10 0.35 0.74 0.61 0.30 0.21 0.20 0.21 0.20 0.16 0.17 0.33 0.52 0.55 0.50 0.44 0.50 0.63 0.87 1.03 1.05 1.03 1.15 1.37 1.68 1.75 1.66 1.39 1.13 1.05 1.07 1.02 0.88 0.76 0.62 0.51 0.43 0.39
0.08 0.09 0.09 0.09 0.08 0.08 0.22 0.62 0.69 0.32 0.22 0.18 0.19 0.18 0.21 0.26 0.35 0.44 0.44 0.47 0.55 0.51 0.48 0.51 0.55 0.58 0.64 0.75 1.07 1.50 1.74 1.76 1.54 1.45 1.27 1.14 1.19 1.22 1.37 1.10 0.79 0.56 0.44

GEFSMA_prec_meanprecacc_150.txt.gz
Total_Precipitation_Accumulation
0.03 0.02 0.02 0.03 0.03 0.02 0.03 0.04 0.05 0.08 0.09 0.09 0.11 0.11 0.12 0.11 0.09 0.10 0.09 0.11 0.11 0.10 0.11 0.19 0.36 0.68 0.99 1.07 1.14 1.06 0.95 0.90 0.77 0.64 0.61 0.74 0.83 0.80 0.75 0.81 0.76 0.60 0.55
0.04 0.03 0.03 0.02 0.02 0.02 0.01 0.01 0.01 0.02 0.03 0.03 0.04 0.05 0.07 0.08 0.08 0.11 0.12 0.14 0.14 0.11 0.11 0.12 0.21 0.40 0.74 0.99 1.16 1.34 1.19 1.06 1.01 0.84 0.65 0.64 0.74 0.79 0.80 0.80 0.85 0.76 0.62
0.06 0.05 0.04 0.03 0.02 0.02 0.01 0.01 0.01 0.01 0.01 0.01 0.01 0.01 0.02 0.03 0.05 0.08 0.10 0.13 0.17 0.15 0.13 0.12 0.13 0.22 0.41 0.69 0.97 1.30 1.49 1.27 1.20 1.15 0.92 0.69 0.66 0.73 0.79 0.85 0.88 0.93 0.81
0.07 0.05 0.05 0.04 0.03 0.02 0.02 0.02 0.02 0.01 0.02 0.01 0.01 0.01 0.01 0.01 0.01 0.03 0.05 0.08 0.14 0.17 0.15 0.15 0.14 0.16 0.24 0.41 0.67 1.02 1.61 1.60 1.43 1.38 1.35 1.06 0.79 0.74 0.75 0.83 0.90 0.95 1.01
0.09 0.08 0.06 0.05 0.03 0.02 0.02 0.02 0.01 0.01 0.02 0.01 0.01 0.01 0.01 0.00 0.00 0.00 0.01 0.03 0.06 0.13 0.17 0.17 0.18 0.17 0.18 0.24 0.42 0.74 1.37 1.74 1.76 1.72 1.70 1.55 1.17 0.90 0.82 0.82 0.91 0.97 1.06
0.09 0.09 0.08 0.05 0.04 0.03 0.02 0.02 0.02 0.02 0.02 0.02 0.01 0.01 0.00 0.00 0.00 0.00 0.00 0.01 0.02 0.05 0.11 0.15 0.18 0.18 0.16 0.16 0.22 0.39 0.81 1.29 1.59 1.77 1.84 1.92 1.75 1.29 0.99 0.90 0.91 1.02 1.08
0.08 0.08 0.08 0.06 0.04 0.03 0.03 0.02 0.02 0.02 0.02 0.02 0.03 0.02 0.01 0.00 0.00 0.00 0.00 0.00 0.01 0.01 0.04 0.08 0.15 0.20 0.19 0.17 0.16 0.19 0.36 0.73 1.14 1.43 1.61 1.81 2.06 1.88 1.41 1.11 1.01 1.05 1.17
0.08 0.08 0.07 0.06 0.04 0.04 0.03 0.03 0.03 0.03 0.03 0.03 0.06 0.11 0.06 0.01 0.00 0.00 0.00 0.00 0.00 0.01 0.02 0.04 0.08 0.15 0.20 0.20 0.14 0.13 0.17 0.37 0.75 1.16 1.43 1.62 1.90 2.19 1.99 1.51 1.24 1.19 1.26
0.07 0.08 0.07 0.05 0.03 0.03 0.02 0.02 0.02 0.04 0.05 0.03 0.05 0.20 0.29 0.17 0.05 0.01 0.00 0.01 0.01 0.01 0.01 0.02 0.05 0.08 0.14 0.21 0.19 0.13 0.11 0.18 0.40 0.78 1.26 1.58 1.80 2.11 2.29 2.04 1.62 1.38 1.38
0.07 0.06 0.07 0.05 0.04 0.02 0.02 0.02 0.02 0.04 0.07 0.09 0.05 0.08 0.19 0.26 0.29 0.14 0.02 0.02 0.03 0.03 0.02 0.02 0.03 0.05 0.08 0.15 0.21 0.21 0.16 0.15 0.24 0.50 0.91 1.47 1.87 2.12 2.47 2.43 2.12 1.73 1.54
0.09 0.07 0.06 0.06 0.04 0.03 0.02 0.02 0.03 0.04 0.08 0.13 0.14 0.12 0.10 0.10 0.16 0.26 0.12 0.03 0.04 0.04 0.04 0.03 0.03 0.04 0.05 0.10 0.15 0.20 0.24 0.25 0.33 0.45 0.69 1.15 1.86 2.21 2.63 2.85 2.54 2.06 1.73
0.10 0.09 0.06 0.06 0.04 0.03 0.03 0.03 0.04 0.05 0.07 0.10 0.12 0.14 0.18 0.20 0.16 0.22 0.21 0.07 0.03 0.03 0.04 0.04 0.05 0.07 0.09 0.10 0.12 0.21 0.28 0.33 0.43 0.48 0.52 0.80 1.38 2.07 2.52 2.87 2.77 2.29 1.90
0.09 0.08 0.07 0.05 0.04 0.04 0.04 0.05 0.06 0.07 0.07 0.10 0.12 0.13 0.15 0.17 0.17 0.23 0.28 0.18 0.09 0.03 0.02 0.03 0.05 0.08 0.11 0.13 0.14 0.19 0.24 0.30 0.37 0.42 0.42 0.51 0.82 1.40 2.10 2.64 2.96 2.72 2.23
0.07 0.06 0.06 0.05 0.05 0.05 0.05 0.07 0.08 0.09 0.11 0.12 0.12 0.14 0.17 0.15 0.19 0.26 0.33 0.37 0.29 0.10 0.03 0.02 0.02 0.04 0.09 0.14 0.14 0.16 0.15 0.21 0.27 0.32 0.36 0.40 0.53 0.85 1.39 2.04 2.80 3.28 2.98
0.08 0.07 0.07 0.07 0.06 0.07 0.09 0.11 0.12 0.12 0.13 0.15 0.17 0.18 0.22 0.20 0.20 0.23 0.26 0.38 0.55 0.42 0.11 0.02 0.02 0.04 0.08 0.13 0.14 0.13 0.11 0.14 0.20 0.24 0.29 0.34 0.41 0.59 0.91 1.40 1.97 2.88 3.47
0.10 0.10 0.10 0.09 0.10 0.10 0.10 0.12 0.14 0.13 0.16 0.18 0.22 0.24 0.24 0.23 0.26 0.28 0.31 0.33 0.42 0.52 0.32 0.05 0.03 0.05 0.09 0.17 0.18 0.14 0.14 0.16 0.17 0.19 0.21 0.23 0.29 0.42 0.64 0.97 1.37 1.95 2.84
0.09 0.10 0.11 0.12 0.15 0.14 0.13 0.15 0.15 0.16 0.19 0.20 0.21 0.26 0.27 0.29 0.38 0.40 0.43 0.42 0.39 0.43 0.44 0.12 0.04 0.06 0.14 0.22 0.22 0.16 0.16 0.14 0.12 0.14 0.17 0.21 0.25 0.34 0.49 0.71 0.97 1.34 1.97
0.09 0.08 0.09 0.13 0.17 0.19 0.18 0.19 0.19 0.19 0.22 0.24 0.26 0.30 0.34 0.36 0.41 0.46 0.54 0.55 0.47 0.42 0.48 0.32 0.11 0.09 0.16 0.26 0.29 0.23 0.19 0.16 0.12 0.13 0.17 0.22 0.28 0.34 0.44 0.58 0.76 1.01 1.37
0.11 0.08 0.09 0.13 0.22 0.27 0.25 0.22 0.25 0.26 0.25 0.27 0.31 0.37 0.42 0.46 0.45 0.48 0.58 0.64 0.59 0.52 0.52 0.48 0.25 0.13 0.15 0.26 0.36 0.32 0.27 0.25 0.19 0.15 0.17 0.20 0.25 0.32 0.39 0.48 0.63 0.80 0.98
0.13 0.10 0.09 0.12 0.24 0.37 0.39 0.39 0.42 0.38 0.32 0.27 0.25 0.31 0.43 0.57 0.63 0.68 0.70 0.69 0.71 0.72 0.66 0.61 0.44 0.27 0.23 0.28 0.44 0.49 0.41 0.35 0.30 0.24 0.21 0.19 0.23 0.29 0.34 0.37 0.41 0.54 0.73
0.12 0.12 0.11 0.12 0.21 0.46 0.71 0.88 0.79 0.53 0.37 0.29 0.23 0.25 0.37 0.60 0.80 1.00 1.06 0.95 0.95 1.01 0.94 0.87 0.74 0.56 0.42 0.43 0.51 0.55 0.61 0.50 0.44 0.36 0.27 0.21 0.21 0.21 0.22 0.28 0.33 0.39 0.52
0.10 0.10 0.10 0.11 0.15 0.42 0.80 1.04 0.76 0.43 0.32 0.28 0.26 0.25 0.33 0.56 0.72 0.84 0.98 0.99 1.04 1.19 1.25 1.18 1.03 0.83 0.58 0.49 0.52 0.64 0.77 0.82 0.69 0.51 0.40 0.31 0.29 0.27 0.22 0.21 0.26 0.33 0.43
0.11 0.11 0.10 0.10 0.10 0.26 0.63 0.89 0.66 0.37 0.28 0.26 0.26 0.25 0.29 0.43 0.56 0.63 0.68 0.70 0.75 0.91 1.14 1.26 1.22 0.91 0.72 0.60 0.70 0.82 0.83 0.92 0.82 0.74 0.72 0.63 0.41 0.35 0.28 0.29 0.33 0.34 0.41
0.12 0.12 0.12 0.11 0.10 0.17 0.51 0.79 0.61 0.35 0.27 0.25 0.26 0.24 0.22 0.29 0.42 0.59 0.67 0.62 0.57 0.66 0.91 1.15 1.32 1.14 0.94 0.91 1.07 1.23 1.24 1.19 1.01 0.95 0.95 1.01 0.70 0.49 0.40 0.36 0.36 0.34 0.38
0.13 0.12 0.12 0.14 0.12 0.14 0.39 0.77 0.65 0.34 0.26 0.24 0.25 0.23 0.18 0.19 0.36 0.54 0.56 0.51 0.45 0.52 0.64 0.88 1.03 1.06 1.04 1.16 1.38 1.69 1.76 1.67 1.40 1.14 1.05 1.07 1.02 0.88 0.77 0.62 0.51 0.43 0.39
0.14 0.14 0.14 0.14 0.14 0.13 0.27 0.68 0.74 0.37 0.25 0.21 0.21 0.20 0.23 0.27 0.37 0.46 0.45 0.47 0.56 0.51 0.48 0.52 0.56 0.59 0.65 0.76 1.08 1.51 1.75 1.77 1.55 1.45 1.27 1.14 1.19 1.22 1.38 1.10 0.79 0.56 0.44

GEFSMA_prec_meanprecacc_156.txt.gz
Total_Precipitation_Accumulation
0.07 0.07 0.05 0.04 0.04 0.03 0.04 0.04 0.06 0.08 0.09 0.09 0.11 0.11 0.12 0.11 0.09 0.10 0.09 0.11 0.12 0.10 0.11 0.20 0.36 0.68 0.99 1.07 1.14 1.06 0.95 0.90 0.78 0.64 0.61 0.74 0.83 0.81 0.75 0.81 0.76 0.61 0.55
0.11 0.08 0.05 0.04 0.03 0.02 0.02 0.02 0.02 0.03 0.03 0.03 0.04 0.05 0.07 0.08 0.08 0.11 0.12 0.14 0.14 0.12 0.11 0.13 0.21 0.40 0.74 0.99 1.16 1.34 1.19 1.06 1.01 0.84 0.65 0.64 0.74 0.79 0.80 0.81 0.85 0.76 0.62
0.18 0.12 0.08 0.05 0.04 0.03 0.02 0.02 0.02 0.01 0.01 0.01 0.01 0.01 0.02 0.03 0.05 0.08 0.10 0.13 0.17 0.15 0.13 0.12 0.14 0.22 0.41 0.69 0.97 1.30 1.49 1.27 1.20 1.15 0.93 0.69 0.66 0.74 0.80 0.85 0.88 0.93 0.81
0.19 0.19 0.14 0.10 0.06 0.04 0.03 0.02 0.02 0.02 0.02 0.01 0.01 0.01 0.01 0.01 0.01 0.03 0.05 0.08 0.14 0.17 0.15 0.15 0.15 0.16 0.24 0.41 0.67 1.02 1.61 1.60 1.43 1.38 1.35 1.06 0.79 0.74 0.76 0.83 0.90 0.95 1.02
0.21 0.20 0.20 0.15 0.09 0.05 0.03 0.02 0.02 0.02 0.02 0.02 0.01 0.01 0.01 0.00 0.00 0.00 0.01 0.03 0.06 0.13 0.17 0.18 0.18 0.17 0.18 0.24 0.42 0.74 1.37 1.74 1.76 1.72 1.70 1.55 1.18 0.91 0.82 0.83 0.91 0.97 1.06
0.21 0.19 0.21 0.20 0.14 0.09 0.05 0.03 0.03 0.02 0.02 0.02 0.02 0.01 0.00 0.00 0.00 0.00 0.00 0.01 0.02 0.05 0.11 0.15 0.18 0.18 0.16 0.16 0.22 0.40 0.81 1.29 1.59 1.78 1.84 1.92 1.75 1.29 1.00 0.90 0.91 1.02 1.09
0.21 0.18 0.16 0.16 0.17 0.14 0.09 0.05 0.04 0.03 0.02 0.02 0.03 0.02 0.01 0.00 0.00 0.00 0.00 0.00 0.01 0.01 0.04 0.09 0.15 0.20 0.19 0.17 0.16 0.19 0.36 0.73 1.14 1.43 1.61 1.81 2.06 1.88 1.41 1.12 1.02 1.05 1.18
0.22 0.19 0.15 0.13 0.12 0.13 0.12 0.08 0.05 0.05 0.04 0.03 0.07 0.11 0.06 0.01 0.00 0.00 0.00 0.00 0.00 0.01 0.02 0.04 0.08 0.15 0.20 0.20 0.14 0.13 0.17 0.37 0.75 1.16 1.43 1.62 1.90 2.19 1.99 1.51 1.24 1.19 1.27
0.24 0.20 0.14 0.12 0.10 0.08 0.08 0.08 0.06 0.06 0.06 0.03 0.05 0.20 0.29 0.17 0.05 0.01 0.00 0.01 0.01 0.01 0.01 0.02 0.05 0.08 0.14 0.21 0.19 0.13 0.11 0.18 0.40 0.78 1.26 1.58 1.80 2.12 2.30 2.05 1.63 1.39 1.39
0.26 0.20 0.17 0.12 0.11 0.09 0.07 0.06 0.05 0.06 0.09 0.10 0.06 0.09 0.19 0.26 0.29 0.14 0.02 0.02 0.03 0.03 0.02 0.02 0.03 0.05 0.08 0.15 0.21 0.21 0.16 0.15 0.24 0.50 0.91 1.47 1.87 2.13 2.48 2.45 2.13 1.74 1.56
0.29 0.23 0.18 0.13 0.11 0.10 0.08 0.06 0.06 0.07 0.10 0.14 0.15 0.12 0.10 0.10 0.16 0.26 0.12 0.03 0.04 0.04 0.04 0.03 0.03 0.04 0.05 0.10 0.15 0.20 0.24 0.25 0.33 0.45 0.69 1.15 1.87 2.22 2.64 2.86 2.55 2.08 1.75
0.29 0.26 0.20 0.16 0.11 0.09 0.09 0.08 0.08 0.08 0.10 0.12 0.14 0.15 0.18 0.20 0.16 0.22 0.21 0.07 0.03 0.03 0.04 0.04 0.05 0.07 0.09 0.10 0.12 0.21 0.28 0.33 0.43 0.48 0.52 0.80 1.38 2.07 2.52 2.87 2.78 2.30 1.91
0.25 0.23 0.21 0.16 0.12 0.09 0.08 0.09 0.10 0.10 0.10 0.12 0.13 0.14 0.15 0.17 0.17 0.23 0.29 0.18 0.09 0.04 0.02 0.03 0.05 0.08 0.11 0.13 0.14 0.19 0.24 0.30 0.37 0.42 0.42 0.51 0.82 1.40 2.10 2.65 2.96 2.73 2.24
0.20 0.18 0.17 0.16 0.14 0.10 0.10 0.12 0.12 0.12 0.13 0.14 0.13 0.14 0.17 0.15 0.19 0.26 0.33 0.37 0.29 0.10 0.03 0.02 0.02 0.04 0.09 0.14 0.14 0.16 0.15 0.21 0.28 0.32 0.36 0.40 0.53 0.85 1.40 2.05 2.81 3.28 2.99
0.19 0.18 0.17 0.15 0.15 0.14 0.14 0.15 0.16 0.15 0.15 0.16 0.17 0.19 0.22 0.20 0.21 0.23 0.27 0.38 0.56 0.42 0.11 0.02 0.02 0.04 0.08 0.13 0.14 0.13 0.11 0.14 0.20 0.24 0.29 0.34 0.42 0.59 0.91 1.40 1.98 2.88 3.48
0.20 0.20 0.20 0.18 0.18 0.17 0.15 0.17 0.18 0.16 0.18 0.20 0.23 0.25 0.24 0.24 0.26 0.29 0.32 0.33 0.42 0.52 0.32 0.05 0.03 0.05 0.10 0.17 0.18 0.15 0.14 0.16 0.17 0.19 0.21 0.24 0.29 0.42 0.64 0.97 1.38 1.95 2.84
0.21 0.19 0.20 0.21 0.22 0.21 0.19 0.20 0.20 0.19 0.22 0.22 0.23 0.26 0.27 0.29 0.38 0.40 0.44 0.43 0.39 0.43 0.45 0.13 0.04 0.06 0.14 0.23 0.22 0.17 0.16 0.15 0.12 0.15 0.17 0.21 0.25 0.34 0.50 0.72 0.98 1.34 1.97
0.21 0.17 0.17 0.21 0.25 0.25 0.22 0.24 0.25 0.23 0.25 0.27 0.27 0.31 0.34 0.36 0.42 0.46 0.54 0.55 0.47 0.42 0.49 0.33 0.12 0.10 0.17 0.27 0.30 0.23 0.19 0.17 0.12 0.13 0.17 0.22 0.28 0.34 0.44 0.58 0.76 1.01 1.37
0.27 0.18 0.16 0.20 0.28 0.33 0.29 0.26 0.30 0.31 0.29 0.30 0.32 0.38 0.43 0.46 0.45 0.48 0.58 0.64 0.59 0.53 0.53 0.50 0.27 0.14 0.16 0.26 0.36 0.33 0.27 0.25 0.19 0.15 0.17 0.20 0.25 0.32 0.39 0.48 0.63 0.80 0.98
0.34 0.26 0.19 0.19 0.29 0.42 0.42 0.41 0.44 0.40 0.35 0.30 0.28 0.33 0.44 0.58 0.63 0.68 0.71 0.70 0.72 0.73 0.68 0.63 0.45 0.28 0.24 0.29 0.44 0.49 0.41 0.35 0.30 0.24 0.21 0.20 0.23 0.29 0.34 0.37 0.42 0.54 0.73
0.28 0.30 0.26 0.22 0.28 0.52 0.76 0.91 0.81 0.55 0.39 0.30 0.24 0.26 0.38 0.62 0.81 1.01 1.07 0.96 0.96 1.03 0.96 0.88 0.75 0.57 0.43 0.43 0.52 0.55 0.61 0.51 0.45 0.36 0.27 0.21 0.22 0.21 0.22 0.28 0.33 0.39 0.52
0.25 0.24 0.26 0.24 0.25 0.50 0.86 1.08 0.79 0.45 0.34 0.29 0.27 0.26 0.34 0.57 0.74 0.86 0.99 1.00 1.05 1.20 1.26 1.19 1.04 0.84 0.59 0.49 0.53 0.64 0.77 0.83 0.70 0.51 0.40 0.31 0.29 0.27 0.22 0.21 0.27 0.33 0.44
0.26 0.23 0.21 0.21 0.20 0.33 0.69 0.94 0.70 0.40 0.31 0.28 0.27 0.26 0.31 0.44 0.57 0.64 0.69 0.72 0.77 0.93 1.16 1.27 1.23 0.92 0.73 0.60 0.70 0.82 0.83 0.93 0.83 0.74 0.73 0.63 0.42 0.35 0.28 0.29 0.33 0.34 0.42
0.24 0.23 0.21 0.19 0.18 0.24 0.57 0.84 0.66 0.39 0.31 0.29 0.30 0.27 0.24 0.31 0.44 0.61 0.68 0.64 0.59 0.68 0.93 1.16 1.33 1.14 0.95 0.92 1.07 1.23 1.24 1.20 1.02 0.96 0.96 1.02 0.71 0.50 0.40 0.36 0.36 0.34 0.38
0.24 0.21 0.21 0.21 0.19 0.19 0.44 0.82 0.69 0.37 0.30 0.28 0.29 0.27 0.23 0.24 0.40 0.58 0.59 0.54 0.47 0.53 0.66 0.89 1.04 1.06 1.05 1.17 1.39 1.69 1.77 1.67 1.40 1.14 1.06 1.08 1.02 0.88 0.77 0.62 0.51 0.43 0.39
0.25 0.24 0.21 0.20 0.21 0.19 0.32 0.73 0.80 0.40 0.29 0.25 0.25 0.24 0.29 0.32 0.42 0.50 0.48 0.50 0.58 0.53 0.49 0.52 0.57 0.59 0.65 0.76 1.09 1.51 1.75 1.78 1.55 1.46 1.27 1.14 1.19 1.22 1.38 1.10 0.79 0.56 0.44

GEFSMA_prec_meanprecacc_162.txt.gz
Total_Precipitation_Accumulation
0.26 0.24 0.18 0.15 0.13 0.11 0.10 0.09 0.08 0.09 0.10 0.09 0.11 0.11 0.12 0.11 0.09 0.10 0.09 0.11 0.12 0.11 0.12 0.20 0.37 0.69 0.99 1.07 1.14 1.06 0.96 0.90 0.78 0.64 0.62 0.74 0.83 0.81 0.76 0.82 0.76 0.61 0.55
0.31 0.27 0.23 0.18 0.15 0.13 0.09 0.07 0.05 0.04 0.04 0.04 0.04 0.05 0.08 0.08 0.08 0.11 0.12 0.14 0.14 0.12 0.11 0.13 0.21 0.41 0.74 0.99 1.16 1.34 1.19 1.06 1.02 0.84 0.65 0.64 0.74 0.80 0.81 0.81 0.85 0.77 0.63
0.41 0.33 0.26 0.22 0.19 0.16 0.13 0.10 0.07 0.04 0.02 0.02 0.02 0.01 0.02 0.03 0.05 0.08 0.10 0.13 0.17 0.15 0.13 0.12 0.14 0.23 0.41 0.69 0.97 1.30 1.49 1.28 1.20 1.15 0.93 0.69 0.67 0.74 0.80 0.86 0.89 0.93 0.81
0.42 0.43 0.35 0.26 0.19 0.20 0.20 0.18 0.14 0.08 0.03 0.02 0.01 0.01 0.01 0.01 0.01 0.03 0.05 0.08 0.14 0.17 0.15 0.15 0.15 0.16 0.24 0.42 0.67 1.02 1.61 1.60 1.43 1.38 1.36 1.06 0.79 0.74 0.76 0.84 0.91 0.95 1.02
0.44 0.46 0.44 0.36 0.26 0.22 0.20 0.19 0.16 0.11 0.06 0.03 0.02 0.01 0.01 0.00 0.00 0.01 0.01 0.03 0.06 0.13 0.17 0.18 0.18 0.17 0.18 0.24 0.42 0.74 1.37 1.75 1.76 1.72 1.70 1.55 1.18 0.91 0.82 0.83 0.91 0.98 1.07
0.45 0.44 0.46 0.43 0.34 0.26 0.21 0.19 0.17 0.13 0.09 0.05 0.03 0.02 0.01 0.00 0.00 0.00 0.00 0.01 0.02 0.05 0.11 0.15 0.18 0.18 0.16 0.17 0.23 0.40 0.81 1.29 1.59 1.78 1.84 1.92 1.75 1.29 1.00 0.91 0.92 1.03 1.10
0.48 0.44 0.41 0.41 0.40 0.33 0.23 0.18 0.19 0.17 0.12 0.09 0.07 0.04 0.01 0.00 0.00 0.00 0.00 0.00 0.01 0.01 0.04 0.09 0.15 0.20 0.19 0.17 0.17 0.20 0.36 0.74 1.14 1.43 1.61 1.81 2.07 1.88 1.41 1.12 1.02 1.07 1.19
0.47 0.46 0.40 0.36 0.35 0.34 0.29 0.20 0.16 0.17 0.14 0.09 0.11 0.14 0.07 0.01 0.00 0.00 0.00 0.00 0.00 0.01 0.02 0.04 0.08 0.15 0.20 0.20 0.14 0.13 0.18 0.37 0.75 1.17 1.43 1.62 1.90 2.19 2.00 1.52 1.26 1.21 1.29
0.48 0.46 0.40 0.34 0.31 0.29 0.27 0.22 0.16 0.14 0.14 0.08 0.07 0.22 0.31 0.18 0.06 0.01 0.00 0.01 0.01 0.01 0.01 0.02 0.05 0.08 0.14 0.21 0.19 0.13 0.11 0.18 0.40 0.79 1.26 1.58 1.80 2.12 2.31 2.07 1.64 1.41 1.41
0.50 0.46 0.42 0.34 0.31 0.28 0.24 0.21 0.19 0.16 0.17 0.15 0.08 0.09 0.20 0.26 0.29 0.14 0.02 0.02 0.03 0.03 0.02 0.02 0.03 0.05 0.08 0.15 0.21 0.21 0.16 0.15 0.24 0.50 0.91 1.47 1.88 2.14 2.49 2.46 2.15 1.76 1.58
0.52 0.49 0.45 0.39 0.32 0.29 0.26 0.21 0.18 0.17 0.18 0.20 0.17 0.14 0.11 0.11 0.16 0.26 0.12 0.03 0.04 0.04 0.04 0.03 0.03 0.04 0.05 0.10 0.15 0.20 0.24 0.25 0.33 0.45 0.69 1.15 1.87 2.23 2.65 2.87 2.57 2.09 1.77
0.54 0.50 0.46 0.41 0.35 0.31 0.27 0.24 0.20 0.18 0.17 0.16 0.17 0.17 0.20 0.21 0.17 0.22 0.21 0.08 0.03 0.03 0.04 0.04 0.05 0.07 0.09 0.10 0.12 0.21 0.28 0.33 0.43 0.48 0.52 0.80 1.38 2.07 2.52 2.88 2.78 2.31 1.93
0.56 0.48 0.44 0.39 0.34 0.31 0.30 0.29 0.25 0.20 0.17 0.17 0.16 0.16 0.17 0.18 0.18 0.24 0.29 0.18 0.09 0.04 0.02 0.03 0.05 0.08 0.11 0.13 0.14 0.20 0.24 0.30 0.37 0.42 0.42 0.51 0.82 1.40 2.10 2.65 2.97 2.74 2.25
0.48 0.42 0.39 0.37 0.33 0.30 0.30 0.32 0.32 0.28 0.22 0.20 0.17 0.17 0.20 0.17 0.20 0.27 0.33 0.37 0.30 0.10 0.03 0.02 0.02 0.04 0.09 0.14 0.14 0.16 0.15 0.21 0.28 0.32 0.36 0.40 0.54 0.86 1.40 2.05 2.81 3.29 2.99
0.44 0.42 0.39 0.37 0.34 0.32 0.32 0.33 0.34 0.31 0.27 0.24 0.22 0.22 0.25 0.22 0.22 0.23 0.27 0.38 0.56 0.42 0.11 0.02 0.02 0.04 0.08 0.14 0.14 0.13 0.12 0.15 0.20 0.25 0.30 0.34 0.42 0.60 0.92 1.40 1.98 2.89 3.48
0.41 0.41 0.40 0.39 0.36 0.34 0.33 0.34 0.34 0.31 0.30 0.28 0.28 0.28 0.26 0.25 0.27 0.29 0.32 0.33 0.42 0.53 0.32 0.05 0.04 0.05 0.10 0.17 0.19 0.15 0.14 0.17 0.18 0.20 0.21 0.24 0.30 0.42 0.65 0.97 1.38 1.96 2.85
0.39 0.36 0.36 0.37 0.39 0.37 0.34 0.36 0.34 0.33 0.34 0.31 0.28 0.30 0.29 0.30 0.38 0.41 0.44 0.43 0.39 0.44 0.45 0.13 0.04 0.06 0.14 0.23 0.23 0.17 0.16 0.15 0.13 0.15 0.17 0.21 0.25 0.34 0.50 0.72 0.98 1.34 1.97
0.43 0.33 0.31 0.33 0.38 0.39 0.36 0.38 0.37 0.34 0.36 0.35 0.33 0.34 0.36 0.37 0.42 0.47 0.54 0.55 0.48 0.43 0.49 0.33 0.12 0.10 0.17 0.27 0.30 0.24 0.20 0.17 0.12 0.13 0.17 0.22 0.28 0.34 0.44 0.58 0.76 1.01 1.37
0.62 0.46 0.34 0.33 0.39 0.44 0.40 0.37 0.41 0.42 0.39 0.37 0.37 0.42 0.45 0.47 0.46 0.48 0.59 0.65 0.60 0.53 0.54 0.51 0.28 0.15 0.17 0.27 0.37 0.34 0.28 0.25 0.19 0.16 0.17 0.20 0.25 0.32 0.39 0.48 0.63 0.80 0.99
0.64 0.57 0.44 0.37 0.42 0.52 0.51 0.51 0.54 0.50 0.44 0.37 0.33 0.36 0.46 0.59 0.64 0.69 0.71 0.70 0.73 0.74 0.69 0.64 0.46 0.29 0.25 0.30 0.45 0.50 0.42 0.35 0.30 0.24 0.21 0.20 0.23 0.29 0.34 0.37 0.42 0.54 0.73
0.51 0.52 0.50 0.42 0.44 0.64 0.84 0.98 0.89 0.63 0.47 0.38 0.30 0.30 0.40 0.63 0.82 1.02 1.08 0.97 0.97 1.04 0.97 0.90 0.76 0.58 0.44 0.44 0.53 0.56 0.61 0.51 0.45 0.36 0.27 0.21 0.22 0.21 0.22 0.28 0.33 0.39 0.52
0.48 0.44 0.44 0.43 0.42 0.63 0.96 1.16 0.85 0.51 0.40 0.36 0.34 0.30 0.37 0.59 0.75 0.87 1.00 1.01 1.06 1.21 1.27 1.20 1.05 0.85 0.61 0.50 0.53 0.65 0.78 0.83 0.70 0.51 0.40 0.32 0.29 0.27 0.22 0.21 0.27 0.33 0.44
0.47 0.43 0.40 0.39 0.36 0.47 0.81 1.03 0.78 0.46 0.36 0.34 0.33 0.31 0.34 0.46 0.59 0.65 0.70 0.73 0.78 0.94 1.17 1.29 1.24 0.93 0.74 0.61 0.71 0.83 0.84 0.93 0.83 0.75 0.73 0.63 0.42 0.35 0.28 0.29 0.34 0.34 0.42
0.43 0.40 0.39 0.37 0.34 0.38 0.69 0.96 0.76 0.47 0.38 0.35 0.36 0.33 0.28 0.33 0.46 0.63 0.70 0.65 0.60 0.69 0.95 1.17 1.34 1.15 0.95 0.92 1.08 1.24 1.25 1.20 1.03 0.96 0.96 1.02 0.71 0.50 0.40 0.36 0.36 0.34 0.38
0.43 0.37 0.35 0.37 0.34 0.32 0.57 0.95 0.82 0.48 0.38 0.35 0.36 0.34 0.27 0.26 0.43 0.61 0.61 0.56 0.49 0.55 0.68 0.90 1.05 1.07 1.06 1.17 1.39 1.70 1.78 1.68 1.41 1.15 1.06 1.08 1.02 0.88 0.77 0.62 0.51 0.43 0.39
0.43 0.40 0.35 0.35 0.35 0.30 0.43 0.85 0.93 0.53 0.41 0.35 0.34 0.33 0.35 0.37 0.47 0.54 0.51 0.53 0.60 0.55 0.51 0.54 0.57 0.60 0.66 0.77 1.10 1.52 1.76 1.79 1.56 1.46 1.28 1.14 1.20 1.23 1.38 1.10 0.79 0.56 0.44

GEFSMA_prec_meanprecacc_168.txt.gz
Total_Precipitation_Accumulation
0.38 0.39 0.38 0.38 0.34 0.29 0.27 0.26 0.22 0.19 0.17 0.15 0.15 0.14 0.13 0.12 0.10 0.10 0.10 0.12 0.14 0.13 0.15 0.22 0.38 0.70 1.00 1.08 1.15 1.06 0.96 0.90 0.78 0.65 0.62 0.74 0.84 0.81 0.76 0.82 0.76 0.61 0.56
0.41 0.40 0.40 0.38 0.36 0.31 0.25 0.22 0.19 0.16 0.12 0.09 0.08 0.08 0.10 0.10 0.09 0.11 0.13 0.15 0.15 0.13 0.13 0.15 0.23 0.42 0.75 1.00 1.16 1.34 1.20 1.07 1.02 0.84 0.66 0.64 0.74 0.80 0.81 0.81 0.86 0.77 0.63
0.51 0.45 0.41 0.39 0.37 0.35 0.30 0.26 0.23 0.18 0.16 0.12 0.09 0.06 0.05 0.05 0.06 0.08 0.10 0.14 0.17 0.16 0.14 0.14 0.15 0.24 0.42 0.70 0.98 1.30 1.50 1.28 1.20 1.15 0.93 0.69 0.67 0.74 0.80 0.86 0.89 0.94 0.82
0.56 0.56 0.50 0.43 0.37 0.40 0.40 0.35 0.30 0.24 0.19 0.16 0.13 0.10 0.07 0.05 0.04 0.04 0.05 0.08 0.14 0.17 0.16 0.16 0.15 0.17 0.25 0.42 0.67 1.03 1.61 1.60 1.44 1.39 1.36 1.06 0.79 0.75 0.76 0.84 0.91 0.96 1.03
0.59 0.60 0.59 0.53 0.45 0.43 0.41 0.37 0.31 0.27 0.22 0.18 0.16 0.14 0.11 0.08 0.06 0.04 0.03 0.04 0.07 0.13 0.17 0.18 0.19 0.17 0.18 0.24 0.43 0.74 1.37 1.75 1.76 1.73 1.70 1.55 1.18 0.91 0.83 0.83 0.92 0.99 1.08
0.62 0.58 0.62 0.60 0.53 0.46 0.41 0.36 0.31 0.26 0.22 0.19 0.17 0.15 0.12 0.10 0.08 0.06 0.05 0.04 0.03 0.05 0.11 0.16 0.19 0.18 0.16 0.17 0.23 0.40 0.81 1.29 1.59 1.78 1.84 1.92 1.75 1.30 1.00 0.92 0.93 1.04 1.12
0.69 0.62 0.57 0.57 0.56 0.49 0.40 0.35 0.33 0.29 0.25 0.22 0.21 0.18 0.14 0.11 0.10 0.08 0.06 0.05 0.04 0.03 0.04 0.09 0.15 0.20 0.19 0.18 0.17 0.20 0.37 0.74 1.14 1.43 1.62 1.81 2.07 1.89 1.42 1.14 1.04 1.09 1.22
0.68 0.67 0.59 0.53 0.51 0.48 0.44 0.35 0.30 0.29 0.26 0.22 0.22 0.25 0.19 0.14 0.10 0.08 0.06 0.05 0.04 0.03 0.03 0.04 0.09 0.15 0.20 0.20 0.14 0.13 0.18 0.38 0.76 1.17 1.44 1.62 1.91 2.20 2.01 1.54 1.28 1.23 1.31
0.65 0.62 0.59 0.54 0.48 0.44 0.42 0.37 0.29 0.26 0.25 0.19 0.17 0.30 0.38 0.25 0.13 0.07 0.05 0.04 0.03 0.03 0.02 0.03 0.05 0.08 0.14 0.21 0.20 0.13 0.11 0.18 0.41 0.79 1.26 1.58 1.81 2.13 2.32 2.08 1.66 1.42 1.43
0.69 0.62 0.57 0.52 0.50 0.44 0.39 0.35 0.32 0.28 0.27 0.25 0.18 0.17 0.25 0.29 0.32 0.17 0.06 0.06 0.05 0.04 0.03 0.02 0.03 0.05 0.08 0.15 0.21 0.21 0.16 0.15 0.25 0.51 0.91 1.48 1.88 2.14 2.51 2.48 2.16 1.78 1.60
0.77 0.69 0.61 0.54 0.49 0.44 0.39 0.34 0.31 0.30 0.30 0.31 0.27 0.22 0.17 0.14 0.18 0.28 0.15 0.06 0.07 0.06 0.05 0.04 0.03 0.04 0.05 0.10 0.15 0.20 0.24 0.25 0.34 0.45 0.69 1.15 1.88 2.24 2.66 2.89 2.58 2.10 1.79
0.83 0.76 0.67 0.59 0.51 0.45 0.40 0.35 0.30 0.29 0.29 0.28 0.28 0.27 0.27 0.26 0.20 0.25 0.24 0.10 0.06 0.05 0.05 0.05 0.05 0.07 0.09 0.10 0.12 0.21 0.28 0.33 0.43 0.49 0.53 0.81 1.39 2.08 2.53 2.88 2.79 2.32 1.94
0.81 0.75 0.71 0.63 0.54 0.47 0.43 0.40 0.35 0.30 0.27 0.28 0.28 0.27 0.27 0.25 0.22 0.26 0.32 0.22 0.12 0.07 0.05 0.05 0.06 0.08 0.11 0.13 0.14 0.20 0.24 0.30 0.37 0.42 0.42 0.51 0.82 1.40 2.10 2.66 2.97 2.74 2.26
0.71 0.64 0.63 0.61 0.54 0.47 0.45 0.45 0.43 0.37 0.31 0.29 0.27 0.27 0.29 0.27 0.28 0.32 0.37 0.41 0.34 0.14 0.06 0.05 0.04 0.05 0.09 0.14 0.14 0.16 0.15 0.21 0.28 0.32 0.36 0.40 0.54 0.86 1.40 2.05 2.81 3.29 3.00
0.68 0.66 0.63 0.61 0.56 0.52 0.49 0.49 0.47 0.42 0.37 0.34 0.32 0.31 0.34 0.31 0.32 0.32 0.34 0.43 0.60 0.46 0.14 0.05 0.04 0.05 0.09 0.14 0.14 0.13 0.12 0.15 0.21 0.25 0.30 0.34 0.42 0.60 0.92 1.41 1.98 2.89 3.49
0.66 0.68 0.69 0.66 0.61 0.55 0.52 0.52 0.50 0.44 0.42 0.39 0.39 0.39 0.36 0.34 0.36 0.38 0.40 0.39 0.46 0.56 0.35 0.07 0.05 0.06 0.10 0.17 0.19 0.15 0.14 0.17 0.18 0.20 0.21 0.24 0.30 0.42 0.65 0.97 1.38 1.96 2.85
0.60 0.61 0.63 0.65 0.66 0.60 0.53 0.54 0.50 0.48 0.47 0.42 0.40 0.41 0.40 0.40 0.47 0.49 0.51 0.48 0.43 0.46 0.47 0.15 0.06 0.07 0.15 0.23 0.23 0.17 0.17 0.15 0.13 0.15 0.18 0.21 0.25 0.34 0.50 0.72 0.98 1.34 1.97
0.62 0.53 0.55 0.59 0.63 0.62 0.57 0.55 0.52 0.49 0.49 0.47 0.45 0.45 0.46 0.46 0.51 0.55 0.62 0.61 0.52 0.46 0.51 0.35 0.14 0.11 0.18 0.27 0.30 0.24 0.20 0.17 0.12 0.13 0.17 0.22 0.28 0.35 0.44 0.58 0.76 1.01 1.37
0.83 0.64 0.56 0.58 0.64 0.69 0.64 0.57 0.56 0.54 0.51 0.48 0.48 0.51 0.54 0.56 0.53 0.55 0.66 0.71 0.64 0.56 0.56 0.53 0.30 0.16 0.18 0.28 0.38 0.34 0.28 0.25 0.19 0.16 0.18 0.20 0.25 0.32 0.39 0.48 0.63 0.80 0.99
0.89 0.77 0.65 0.60 0.66 0.77 0.76 0.74 0.73 0.64 0.57 0.47 0.42 0.44 0.54 0.67 0.71 0.74 0.77 0.76 0.77 0.78 0.72 0.66 0.48 0.31 0.26 0.31 0.46 0.50 0.42 0.36 0.30 0.24 0.21 0.20 0.23 0.30 0.34 0.37 0.42 0.54 0.73
0.77 0.75 0.71 0.65 0.66 0.85 1.05 1.18 1.07 0.78 0.60 0.49 0.39 0.37 0.48 0.71 0.90 1.07 1.12 1.01 1.01 1.08 1.00 0.92 0.78 0.60 0.45 0.46 0.54 0.56 0.62 0.51 0.45 0.37 0.28 0.22 0.22 0.22 0.22 0.28 0.33 0.39 0.52
0.72 0.70 0.66 0.66 0.64 0.83 1.15 1.33 1.00 0.64 0.51 0.47 0.43 0.38 0.45 0.67 0.83 0.93 1.05 1.05 1.10 1.24 1.30 1.22 1.07 0.87 0.62 0.52 0.55 0.66 0.79 0.84 0.71 0.52 0.41 0.32 0.29 0.27 0.23 0.21 0.27 0.34 0.44
0.69 0.67 0.62 0.59 0.56 0.64 0.98 1.19 0.90 0.58 0.46 0.43 0.43 0.40 0.43 0.54 0.67 0.72 0.76 0.77 0.82 0.98 1.20 1.32 1.26 0.95 0.76 0.62 0.72 0.84 0.84 0.93 0.83 0.75 0.73 0.64 0.42 0.36 0.28 0.29 0.34 0.34 0.42
0.64 0.62 0.60 0.57 0.51 0.53 0.84 1.10 0.90 0.59 0.49 0.45 0.45 0.41 0.37 0.42 0.55 0.70 0.76 0.70 0.64 0.73 0.98 1.20 1.37 1.17 0.97 0.94 1.09 1.24 1.26 1.21 1.03 0.97 0.96 1.03 0.71 0.50 0.40 0.36 0.37 0.34 0.38
0.63 0.59 0.55 0.56 0.50 0.45 0.69 1.07 0.95 0.61 0.51 0.46 0.47 0.44 0.37 0.36 0.52 0.68 0.67 0.61 0.54 0.60 0.72 0.95 1.09 1.10 1.09 1.20 1.41 1.71 1.79 1.69 1.42 1.16 1.06 1.08 1.03 0.89 0.77 0.62 0.51 0.44 0.39
0.60 0.57 0.52 0.51 0.47 0.40 0.53 0.96 1.05 0.65 0.52 0.47 0.47 0.45 0.48 0.49 0.58 0.63 0.57 0.58 0.66 0.60 0.56 0.59 0.62 0.64 0.70 0.81 1.13 1.54 1.77 1.80 1.58 1.48 1.29 1.15 1.20 1.23 1.38 1.10 0.79 0.57 0.45

GEFSMA_prec_meanprecacc_174.txt.gz
Total_Precipitation_Accumulation
0.51 0.49 0.45 0.44 0.41 0.38 0.35 0.34 0.32 0.30 0.28 0.25 0.24 0.22 0.20 0.16 0.13 0.13 0.11 0.13 0.16 0.16 0.19 0.27 0.42 0.72 1.02 1.09 1.15 1.07 0.96 0.90 0.79 0.65 0.62 0.75 0.84 0.82 0.76 0.83 0.77 0.61 0.56
0.54 0.52 0.50 0.44 0.42 0.41 0.36 0.32 0.27 0.26 0.24 0.21 0.18 0.16 0.16 0.15 0.13 0.14 0.15 0.17 0.17 0.16 0.17 0.20 0.28 0.45 0.77 1.01 1.17 1.35 1.20 1.07 1.02 0.85 0.66 0.65 0.75 0.80 0.82 0.82 0.86 0.77 0.63
0.67 0.59 0.54 0.49 0.43 0.43 0.42 0.40 0.36 0.30 0.26 0.22 0.18 0.15 0.13 0.12 0.11 0.12 0.13 0.16 0.20 0.18 0.17 0.19 0.20 0.28 0.45 0.72 0.99 1.31 1.50 1.28 1.21 1.16 0.94 0.70 0.67 0.75 0.81 0.86 0.89 0.94 0.82
0.74 0.74 0.65 0.56 0.46 0.47 0.49 0.48 0.45 0.39 0.32 0.28 0.23 0.18 0.15 0.12 0.10 0.10 0.10 0.13 0.18 0.20 0.19 0.20 0.20 0.21 0.29 0.45 0.69 1.04 1.62 1.61 1.44 1.39 1.36 1.07 0.80 0.75 0.77 0.84 0.92 0.97 1.04
0.78 0.80 0.79 0.69 0.58 0.53 0.50 0.47 0.44 0.40 0.35 0.31 0.28 0.25 0.20 0.16 0.13 0.11 0.09 0.09 0.11 0.16 0.20 0.21 0.22 0.21 0.22 0.27 0.45 0.76 1.38 1.75 1.77 1.73 1.71 1.56 1.19 0.91 0.83 0.84 0.93 1.00 1.09
0.78 0.77 0.81 0.78 0.69 0.60 0.53 0.48 0.42 0.37 0.33 0.30 0.29 0.28 0.24 0.20 0.16 0.14 0.12 0.10 0.09 0.10 0.15 0.19 0.21 0.21 0.19 0.19 0.25 0.42 0.82 1.30 1.60 1.79 1.85 1.93 1.76 1.30 1.01 0.92 0.94 1.05 1.13
0.83 0.80 0.76 0.75 0.73 0.63 0.52 0.48 0.46 0.41 0.36 0.32 0.33 0.32 0.29 0.24 0.19 0.15 0.12 0.11 0.09 0.08 0.09 0.13 0.18 0.22 0.21 0.19 0.19 0.22 0.38 0.75 1.15 1.44 1.62 1.82 2.07 1.89 1.43 1.15 1.05 1.10 1.23
0.78 0.83 0.79 0.73 0.67 0.63 0.57 0.48 0.45 0.44 0.39 0.32 0.32 0.36 0.32 0.28 0.23 0.16 0.12 0.10 0.08 0.07 0.07 0.08 0.12 0.17 0.22 0.21 0.15 0.14 0.20 0.39 0.77 1.18 1.45 1.63 1.92 2.21 2.02 1.55 1.29 1.24 1.32
0.73 0.75 0.76 0.73 0.67 0.59 0.55 0.49 0.41 0.38 0.38 0.30 0.25 0.38 0.47 0.33 0.21 0.15 0.12 0.09 0.07 0.06 0.06 0.06 0.07 0.10 0.16 0.22 0.20 0.14 0.12 0.20 0.43 0.81 1.27 1.59 1.82 2.13 2.33 2.10 1.67 1.43 1.44
0.75 0.72 0.71 0.69 0.69 0.62 0.53 0.48 0.44 0.39 0.39 0.37 0.28 0.25 0.31 0.34 0.36 0.22 0.12 0.11 0.10 0.08 0.07 0.05 0.06 0.07 0.10 0.16 0.22 0.21 0.17 0.17 0.27 0.52 0.93 1.48 1.89 2.15 2.52 2.49 2.17 1.78 1.61
0.83 0.76 0.71 0.69 0.65 0.62 0.55 0.48 0.45 0.43 0.42 0.42 0.37 0.29 0.24 0.20 0.23 0.32 0.19 0.11 0.13 0.12 0.10 0.07 0.06 0.07 0.08 0.11 0.16 0.21 0.25 0.27 0.36 0.47 0.71 1.16 1.88 2.24 2.67 2.90 2.59 2.11 1.79
0.91 0.84 0.75 0.71 0.66 0.61 0.56 0.51 0.45 0.43 0.41 0.40 0.38 0.34 0.33 0.32 0.25 0.29 0.28 0.14 0.11 0.10 0.11 0.11 0.10 0.11 0.12 0.12 0.14 0.23 0.30 0.34 0.44 0.50 0.53 0.82 1.40 2.09 2.54 2.90 2.80 2.33 1.95
0.91 0.83 0.79 0.73 0.67 0.62 0.59 0.56 0.51 0.45 0.41 0.40 0.39 0.37 0.34 0.31 0.29 0.32 0.38 0.27 0.18 0.12 0.11 0.12 0.12 0.13 0.15 0.16 0.17 0.22 0.26 0.32 0.38 0.43 0.43 0.52 0.83 1.41 2.12 2.66 2.98 2.75 2.26
0.83 0.75 0.73 0.71 0.66 0.62 0.61 0.62 0.59 0.51 0.45 0.43 0.40 0.38 0.38 0.34 0.35 0.40 0.45 0.49 0.42 0.21 0.13 0.12 0.10 0.10 0.14 0.17 0.16 0.19 0.17 0.24 0.29 0.33 0.37 0.41 0.54 0.86 1.41 2.06 2.82 3.29 3.00
0.78 0.78 0.75 0.72 0.68 0.66 0.66 0.67 0.64 0.56 0.50 0.47 0.46 0.43 0.44 0.40 0.40 0.40 0.42 0.51 0.69 0.55 0.23 0.12 0.11 0.11 0.14 0.18 0.17 0.15 0.13 0.17 0.22 0.26 0.31 0.35 0.42 0.60 0.92 1.41 1.99 2.89 3.49
0.76 0.78 0.81 0.78 0.73 0.69 0.70 0.72 0.68 0.60 0.57 0.54 0.53 0.52 0.47 0.44 0.46 0.48 0.50 0.49 0.55 0.64 0.44 0.15 0.12 0.12 0.16 0.23 0.24 0.19 0.17 0.19 0.20 0.21 0.22 0.24 0.30 0.42 0.65 0.97 1.38 1.96 2.85
0.73 0.73 0.75 0.78 0.80 0.74 0.69 0.73 0.71 0.66 0.64 0.59 0.56 0.55 0.51 0.50 0.57 0.60 0.63 0.59 0.53 0.55 0.56 0.24 0.15 0.16 0.23 0.30 0.29 0.22 0.20 0.18 0.15 0.17 0.19 0.22 0.26 0.34 0.50 0.72 0.98 1.34 1.98
0.75 0.67 0.68 0.73 0.77 0.77 0.72 0.71 0.71 0.67 0.67 0.64 0.60 0.60 0.58 0.56 0.60 0.65 0.71 0.70 0.61 0.53 0.58 0.43 0.24 0.23 0.29 0.36 0.38 0.30 0.24 0.20 0.14 0.15 0.18 0.23 0.29 0.35 0.44 0.58 0.76 1.01 1.37
0.95 0.77 0.70 0.72 0.80 0.83 0.79 0.73 0.72 0.71 0.66 0.62 0.61 0.65 0.66 0.66 0.62 0.63 0.73 0.77 0.71 0.62 0.62 0.59 0.38 0.26 0.28 0.37 0.45 0.40 0.32 0.28 0.21 0.18 0.20 0.22 0.26 0.33 0.40 0.48 0.63 0.81 0.99
1.02 0.92 0.80 0.75 0.81 0.91 0.90 0.90 0.90 0.82 0.73 0.62 0.55 0.56 0.65 0.76 0.78 0.81 0.83 0.81 0.82 0.83 0.78 0.73 0.56 0.40 0.36 0.39 0.52 0.55 0.47 0.39 0.33 0.27 0.24 0.22 0.25 0.31 0.35 0.38 0.42 0.54 0.73
0.91 0.90 0.88 0.81 0.81 1.00 1.20 1.35 1.26 0.97 0.78 0.66 0.53 0.50 0.59 0.79 0.96 1.13 1.18 1.06 1.06 1.13 1.06 0.98 0.86 0.68 0.54 0.53 0.59 0.60 0.66 0.55 0.49 0.40 0.31 0.24 0.24 0.23 0.23 0.29 0.34 0.40 0.53
0.84 0.84 0.83 0.82 0.79 0.96 1.29 1.49 1.18 0.85 0.71 0.65 0.58 0.50 0.55 0.76 0.90 1.00 1.12 1.11 1.15 1.30 1.36 1.28 1.13 0.92 0.67 0.55 0.58 0.70 0.83 0.89 0.75 0.55 0.44 0.35 0.32 0.29 0.24 0.22 0.27 0.34 0.44
0.80 0.80 0.76 0.75 0.72 0.78 1.10 1.32 1.07 0.76 0.65 0.60 0.56 0.52 0.54 0.64 0.75 0.79 0.84 0.86 0.90 1.05 1.26 1.36 1.31 1.00 0.79 0.66 0.77 0.89 0.91 0.99 0.88 0.80 0.77 0.67 0.45 0.37 0.29 0.30 0.34 0.35 0.42
0.77 0.76 0.75 0.70 0.66 0.69 0.98 1.24 1.06 0.76 0.65 0.59 0.57 0.53 0.49 0.53 0.64 0.79 0.85 0.80 0.74 0.82 1.05 1.25 1.42 1.23 1.03 1.00 1.16 1.32 1.32 1.27 1.08 1.01 0.99 1.05 0.73 0.52 0.42 0.37 0.38 0.34 0.38
0.76 0.72 0.69 0.70 0.65 0.62 0.86 1.24 1.12 0.77 0.65 0.59 0.59 0.55 0.49 0.47 0.62 0.77 0.75 0.70 0.64 0.69 0.81 1.01 1.15 1.17 1.16 1.27 1.48 1.78 1.84 1.74 1.46 1.19 1.09 1.11 1.05 0.91 0.79 0.64 0.52 0.44 0.39
0.72 0.71 0.66 0.66 0.62 0.56 0.70 1.12 1.22 0.79 0.65 0.59 0.59 0.55 0.59 0.59 0.68 0.71 0.65 0.67 0.74 0.68 0.64 0.67 0.70 0.73 0.77 0.88 1.20 1.59 1.81 1.84 1.62 1.52 1.32 1.18 1.23 1.25 1.40 1.12 0.80 0.57 0.45